| time (UTC) | temp C | wind direction | speed KPH | gust KPH | rain 1hr cm | rain 24hr cm | rain mn cm | humidity % | barometer mb |
| 20260504173619 | 25 | 274 | 3.2 | 3.2 | 0.00 | 0.00 | 0.00 | 99 | 1009.4 |
| 20260504173519 | 26 | 274 | 3.2 | 3.2 | 0.00 | 0.00 | 0.00 | 99 | 1009.4 |
| 20260504173419 | 26 | 274 | 3.2 | 3.2 | 0.00 | 0.00 | 0.00 | 99 | 1009.4 |
| 20260504173319 | 26 | 274 | 3.2 | 4.8 | 0.00 | 0.00 | 0.00 | 99 | 1009.4 |
| 20260504173219 | 26 | 274 | 4.8 | 3.2 | 0.00 | 0.00 | 0.00 | 99 | 1009.4 |
| 20260504173119 | 26 | 274 | 3.2 | 3.2 | 0.00 | 0.00 | 0.00 | 99 | 1009.4 |
| 20260504173021 | 26 | 274 | 3.2 | 3.2 | 0.00 | 0.00 | 0.00 | 99 | 1009.4 |
| 20260504172919 | 26 | 274 | 3.2 | 3.2 | 0.00 | 0.00 | 0.00 | 99 | 1009.4 |
| 20260504172819 | 26 | 274 | 3.2 | 3.2 | 0.00 | 0.00 | 0.00 | 99 | 1009.4 |
| 20260504172719 | 26 | 274 | 3.2 | 4.8 | 0.00 | 0.00 | 0.00 | 99 | 1009.4 |
| 20260504172619 | 26 | 275 | 4.8 | 3.2 | 0.00 | 0.00 | 0.00 | 99 | 1009.4 |
| 20260504172519 | 26 | 276 | 3.2 | 4.8 | 0.00 | 0.00 | 0.00 | 99 | 1009.5 |
| 20260504172419 | 26 | 276 | 4.8 | 4.8 | 0.00 | 0.00 | 0.00 | 99 | 1009.5 |
| 20260504172319 | 26 | 275 | 4.8 | 3.2 | 0.00 | 0.00 | 0.00 | 99 | 1009.5 |
| 20260504172219 | 26 | 276 | 3.2 | 3.2 | 0.00 | 0.00 | 0.00 | 99 | 1009.5 |
| 20260504172119 | 26 | 276 | 3.2 | 3.2 | 0.00 | 0.00 | 0.00 | 99 | 1009.5 |
| 20260504172018 | 26 | 279 | 3.2 | 3.2 | 0.00 | 0.00 | 0.00 | 99 | 1009.6 |
| 20260504171919 | 26 | 282 | 3.2 | 3.2 | 0.00 | 0.00 | 0.00 | 99 | 1009.6 |
| 20260504171819 | 26 | 283 | 3.2 | 4.8 | 0.00 | 0.00 | 0.00 | 99 | 1009.6 |
| 20260504171719 | 26 | 280 | 4.8 | 4.8 | 0.00 | 0.00 | 0.00 | 99 | 1009.6 |
| 20260504171618 | 26 | 293 | 4.8 | 4.8 | 0.00 | 0.00 | 0.00 | 99 | 1009.5 |
| 20260504171518 | 26 | 294 | 4.8 | 4.8 | 0.00 | 0.00 | 0.00 | 99 | 1009.5 |
| 20260504171419 | 26 | 294 | 4.8 | 3.2 | 0.00 | 0.00 | 0.00 | 99 | 1009.5 |
| 20260504171318 | 26 | 294 | 3.2 | 4.8 | 0.00 | 0.00 | 0.00 | 99 | 1009.5 |
| 20260504171219 | 26 | 294 | 4.8 | 4.8 | 0.00 | 0.00 | 0.00 | 99 | 1009.5 |
| 20260504171118 | 26 | 296 | 4.8 | 6.4 | 0.00 | 0.00 | 0.00 | 99 | 1009.5 |
| 20260504171018 | 26 | 297 | 6.4 | 4.8 | 0.00 | 0.00 | 0.00 | 99 | 1009.5 |
| 20260504170818 | 26 | 275 | 3.2 | 3.2 | 0.00 | 0.00 | 0.00 | 99 | 1009.5 |
| 20260504170718 | 26 | 275 | 3.2 | 3.2 | 0.00 | 0.00 | 0.00 | 99 | 1009.5 |
| 20260504170618 | 26 | 275 | 3.2 | 4.8 | 0.00 | 0.00 | 0.00 | 99 | 1009.5 |
| 20260504170518 | 26 | 274 | 4.8 | 4.8 | 0.00 | 0.00 | 0.00 | 99 | 1009.6 |
| 20260504170418 | 26 | 274 | 4.8 | 3.2 | 0.00 | 0.00 | 0.00 | 99 | 1009.6 |
| 20260504170318 | 26 | 274 | 3.2 | 4.8 | 0.00 | 0.00 | 0.00 | 99 | 1009.6 |
| 20260504170218 | 26 | 277 | 4.8 | 4.8 | 0.00 | 0.00 | 0.00 | 99 | 1009.6 |
| 20260504170118 | 26 | 277 | 4.8 | 3.2 | 0.00 | 0.00 | 0.00 | 99 | 1009.6 |
| 20260504160418 | 26 | 273 | 4.8 | 3.2 | 0.00 | 0.00 | 0.00 | 99 | 1009.8 |
| 20260504160318 | 26 | 273 | 3.2 | 3.2 | 0.00 | 0.00 | 0.00 | 99 | 1009.7 |
| 20260504160218 | 26 | 272 | 3.2 | 4.8 | 0.00 | 0.00 | 0.00 | 99 | 1009.7 |
| 20260504160118 | 26 | 272 | 4.8 | 4.8 | 0.00 | 0.00 | 0.00 | 99 | 1009.7 |
| 20260504151117 | 27 | 272 | 1.6 | 1.6 | 0.00 | 0.00 | 0.00 | 99 | 1009.2 |
| 20260504151017 | 27 | 272 | 1.6 | 1.6 | 0.00 | 0.00 | 0.00 | 99 | 1009.2 |
| 20260504150917 | 27 | 272 | 1.6 | 1.6 | 0.00 | 0.00 | 0.00 | 99 | 1009.2 |
| 20260504150817 | 27 | 272 | 1.6 | 1.6 | 0.00 | 0.00 | 0.00 | 99 | 1009.2 |
| 20260504150717 | 27 | 272 | 1.6 | 1.6 | 0.00 | 0.00 | 0.00 | 99 | 1009.2 |
| 20260504150617 | 27 | 272 | 1.6 | 1.6 | 0.00 | 0.00 | 0.00 | 99 | 1009.2 |
| 20260504150518 | 27 | 272 | 1.6 | 4.8 | 0.00 | 0.00 | 0.00 | 99 | 1009.1 |
| 20260504150417 | 27 | 272 | 1.6 | 3.2 | 0.00 | 0.00 | 0.00 | 99 | 1009.1 |
| 20260504150317 | 27 | 272 | 3.2 | 1.6 | 0.00 | 0.00 | 0.00 | 99 | 1009.1 |
| 20260504150217 | 27 | 272 | 1.6 | 3.2 | 0.00 | 0.00 | 0.00 | 99 | 1009.1 |
| 20260504150117 | 27 | 272 | 3.2 | 3.2 | 0.00 | 0.00 | 0.00 | 99 | 1009.1 |
| 20260504141317 | 27 | 182 | 1.6 | 0.0 | 0.00 | 0.00 | 0.00 | 99 | 1008.4 |
| 20260504141217 | 27 | 182 | 0.0 | 0.0 | 0.00 | 0.00 | 0.00 | 99 | 1008.4 |
| 20260504141117 | 27 | 132 | 0.0 | 0.0 | 0.00 | 0.00 | 0.00 | 99 | 1008.4 |
| 20260504141017 | 27 | 106 | 0.0 | 0.0 | 0.00 | 0.00 | 0.00 | 99 | 1008.4 |
| 20260504140917 | 27 | 106 | 0.0 | 0.0 | 0.00 | 0.00 | 0.00 | 99 | 1008.3 |
| 20260504140817 | 27 | 106 | 0.0 | 0.0 | 0.00 | 0.00 | 0.00 | 99 | 1008.3 |
| 20260504140732 | 27 | 106 | 0.0 | 0.0 | 0.00 | 0.00 | 0.00 | 99 | 1008.3 |
| 20260504140727 | 27 | 106 | 0.0 | 0.0 | 0.00 | 0.00 | 0.00 | 99 | 1008.3 |
| 20260504140547 | 27 | 106 | 0.0 | 0.0 | 0.00 | 0.00 | 0.00 | 99 | 1008.3 |
| 20260504140531 | 27 | 106 | 0.0 | 0.0 | 0.00 | 0.00 | 0.00 | 99 | 1008.3 |
| 20260504140529 | 27 | 106 | 0.0 | 0.0 | 0.00 | 0.00 | 0.00 | 99 | 1008.3 |
| 20260504140118 | 27 | 106 | 0.0 | 0.0 | 0.00 | 0.00 | 0.00 | 99 | 1008.3 |
| 20260504140112 | 27 | 106 | 0.0 | 0.0 | 0.00 | 0.00 | 0.00 | 99 | 1008.3 |
| 20260504140107 | 27 | 106 | 0.0 | 0.0 | 0.00 | 0.00 | 0.00 | 99 | 1008.2 |
| 20260504140105 | 27 | 106 | 0.0 | 0.0 | 0.00 | 0.00 | 0.00 | 99 | 1008.2 |
| 20260504130806 | 28 | 106 | 0.0 | 0.0 | 0.00 | 0.00 | 0.00 | 96 | 1007.5 |
| 20260504130800 | 28 | 106 | 0.0 | 0.0 | 0.00 | 0.00 | 0.00 | 97 | 1007.5 |
| 20260504110705 | 30 | 62 | 4.8 | 3.2 | 0.00 | 0.00 | 0.00 | 90 | 1006.3 |
| 20260504110643 | 30 | 78 | 3.2 | 3.2 | 0.00 | 0.00 | 0.00 | 90 | 1006.3 |
| 20260504110554 | 30 | 54 | 3.2 | 3.2 | 0.00 | 0.00 | 0.00 | 90 | 1006.3 |
| 20260504110404 | 30 | 54 | 3.2 | 3.2 | 0.00 | 0.00 | 0.00 | 90 | 1006.3 |
| 20260504110307 | 30 | 57 | 4.8 | 4.8 | 0.00 | 0.00 | 0.00 | 90 | 1006.3 |
| 20260504110107 | 30 | 71 | 4.8 | 4.8 | 0.00 | 0.00 | 0.00 | 90 | 1006.3 |
| 20260504110105 | 30 | 39 | 4.8 | 6.4 | 0.00 | 0.00 | 0.00 | 90 | 1006.3 |
| 20260504100354 | 31 | 354 | 1.6 | 0.0 | 0.00 | 0.00 | 0.00 | 87 | 1006.0 |
| 20260504100244 | 31 | 351 | 0.0 | 0.0 | 0.00 | 0.00 | 0.00 | 87 | 1006.0 |
| 20260504090127 | 31 | 282 | 0.0 | 1.6 | 0.00 | 0.00 | 0.00 | 84 | 1005.6 |
| 20260504080808 | 28 | 263 | 0.0 | 3.2 | 0.00 | 0.00 | 0.00 | 97 | 1006.6 |
| 20260504080706 | 28 | 260 | 3.2 | 1.6 | 0.00 | 0.00 | 0.00 | 98 | 1006.6 |
| 20260504080606 | 28 | 291 | 1.6 | 1.6 | 0.00 | 0.00 | 0.00 | 99 | 1006.6 |
| 20260504080506 | 28 | 257 | 1.6 | 0.0 | 0.00 | 0.00 | 0.00 | 99 | 1006.6 |
| 20260504080406 | 28 | 253 | 0.0 | 0.0 | 0.00 | 0.00 | 0.00 | 98 | 1006.6 |
| 20260504080306 | 28 | 253 | 0.0 | 0.0 | 0.00 | 0.00 | 0.00 | 99 | 1006.6 |
| 20260504080206 | 27 | 177 | 0.0 | 0.0 | 0.00 | 0.00 | 0.00 | 99 | 1006.6 |
| 20260504080106 | 27 | 177 | 0.0 | 0.0 | 0.00 | 0.00 | 0.00 | 98 | 1006.7 |
| 20260504070405 | 31 | 20 | 9.7 | 9.7 | 0.00 | 0.00 | 0.00 | 86 | 1007.6 |
| 20260504070305 | 31 | 5 | 9.7 | 11.3 | 0.00 | 0.00 | 0.00 | 86 | 1007.7 |
| 20260504070205 | 31 | 23 | 11.3 | 11.3 | 0.00 | 0.00 | 0.00 | 86 | 1007.7 |
| 20260504070105 | 31 | 0 | 11.3 | 9.7 | 0.00 | 0.00 | 0.00 | 86 | 1007.7 |
| 20260504060205 | 31 | 0 | 8.0 | 11.3 | 0.00 | 0.00 | 0.00 | 86 | 1008.7 |
| 20260504060105 | 31 | 0 | 11.3 | 12.9 | 0.00 | 0.00 | 0.00 | 85 | 1008.7 |
| 20260504050704 | 27 | 342 | 6.4 | 6.4 | 0.00 | 0.00 | 0.00 | 96 | 1010.0 |
| 20260504050604 | 27 | 355 | 6.4 | 4.8 | 0.00 | 0.00 | 0.00 | 96 | 1010.0 |
| 20260504050504 | 27 | 355 | 4.8 | 6.4 | 0.00 | 0.00 | 0.00 | 96 | 1010.0 |
| 20260504050404 | 27 | 355 | 8.0 | 9.7 | 0.00 | 0.00 | 0.00 | 95 | 1010.1 |
| 20260504050304 | 27 | 22 | 9.7 | 8.0 | 0.00 | 0.00 | 0.00 | 96 | 1010.1 |
| 20260504050204 | 27 | 6 | 8.0 | 6.4 | 0.00 | 0.00 | 0.00 | 98 | 1010.1 |
| 20260504050123 | 27 | 344 | 1.6 | 1.6 | 0.00 | 0.00 | 0.00 | 98 | 1010.2 |
| 20260504045904 | 27 | 326 | 1.6 | 4.8 | 0.00 | 0.00 | 0.00 | 97 | 1010.2 |
| 20260504045804 | 27 | 328 | 4.8 | 6.4 | 0.00 | 0.00 | 0.00 | 98 | 1010.2 |
| 20260504045704 | 27 | 321 | 6.4 | 4.8 | 0.00 | 0.00 | 0.00 | 98 | 1010.2 |
| 20260504045604 | 26 | 330 | 4.8 | 4.8 | 0.00 | 0.00 | 0.00 | 99 | 1010.3 |
| 20260504045504 | 26 | 328 | 4.8 | 11.3 | 0.00 | 0.00 | 0.00 | 98 | 1010.3 |
| 20260504045404 | 26 | 353 | 6.4 | 6.4 | 0.00 | 0.00 | 0.00 | 98 | 1010.3 |
| 20260504045304 | 26 | 355 | 6.4 | 4.8 | 0.00 | 0.00 | 0.00 | 99 | 1010.3 |
| 20260504045204 | 26 | 355 | 4.8 | 6.4 | 0.00 | 0.00 | 0.00 | 98 | 1010.3 |
| 20260504045104 | 26 | 350 | 6.4 | 8.0 | 0.00 | 0.00 | 0.00 | 99 | 1010.3 |
| 20260504045004 | 26 | 348 | 8.0 | 8.0 | 0.00 | 0.00 | 0.00 | 99 | 1010.3 |
| 20260504044904 | 26 | 351 | 8.0 | 6.4 | 0.00 | 0.00 | 0.00 | 99 | 1010.3 |
| 20260504044804 | 26 | 335 | 6.4 | 6.4 | 0.00 | 0.00 | 0.00 | 99 | 1010.3 |
| 20260504044704 | 26 | 0 | 6.4 | 11.3 | 0.00 | 0.00 | 0.00 | 99 | 1010.3 |
| 20260504044604 | 26 | 18 | 11.3 | 9.7 | 0.00 | 0.00 | 0.00 | 99 | 1010.3 |
| 20260504044523 | 26 | 15 | 9.7 | 17.7 | 0.00 | 0.00 | 0.00 | 99 | 1010.3 |
| 20260504044404 | 26 | 35 | 12.9 | 12.9 | 0.00 | 0.00 | 0.00 | 99 | 1010.3 |
| 20260504044304 | 26 | 30 | 12.9 | 11.3 | 0.00 | 0.00 | 0.00 | 99 | 1010.3 |
| 20260504044206 | 26 | 47 | 11.3 | 9.7 | 0.00 | 0.00 | 0.00 | 99 | 1010.3 |
| 20260504044106 | 26 | 44 | 9.7 | 12.9 | 0.00 | 0.00 | 0.00 | 99 | 1010.3 |
| 20260504044004 | 26 | 9 | 12.9 | 8.0 | 0.00 | 0.00 | 0.00 | 99 | 1010.3 |
| 20260504043911 | 26 | 231 | 8.0 | 6.4 | 0.00 | 0.00 | 0.00 | 99 | 1010.2 |
| 20260504043804 | 26 | 330 | 6.4 | 11.3 | 0.00 | 0.00 | 0.00 | 99 | 1010.2 |
| 20260504043704 | 26 | 328 | 11.3 | 16.1 | 0.00 | 0.00 | 0.00 | 99 | 1010.2 |
| 20260504043604 | 26 | 328 | 16.1 | 12.9 | 0.00 | 0.00 | 0.00 | 99 | 1010.2 |
| 20260504043504 | 26 | 338 | 12.9 | 17.7 | 0.00 | 0.00 | 0.00 | 99 | 1010.2 |
| 20260504043404 | 26 | 353 | 11.3 | 12.9 | 0.00 | 0.00 | 0.00 | 99 | 1010.2 |
| 20260504043304 | 26 | 355 | 12.9 | 19.3 | 0.00 | 0.00 | 0.00 | 99 | 1010.2 |
| 20260504043204 | 26 | 355 | 19.3 | 16.1 | 0.00 | 0.00 | 0.00 | 99 | 1010.2 |
| 20260504043104 | 26 | 355 | 16.1 | 22.5 | 0.00 | 0.00 | 0.00 | 99 | 1010.2 |
| 20260504043010 | 26 | 298 | 22.5 | 17.7 | 0.00 | 0.00 | 0.00 | 99 | 1010.2 |
| 20260504042904 | 27 | 5 | 17.7 | 20.9 | 0.00 | 0.00 | 0.00 | 99 | 1010.1 |
| 20260504042804 | 27 | 22 | 20.9 | 24.1 | 0.00 | 0.00 | 0.00 | 99 | 1010.1 |
| 20260504042704 | 27 | 55 | 24.1 | 29.0 | 0.00 | 0.00 | 0.00 | 98 | 1010.1 |
| 20260504042604 | 28 | 50 | 29.0 | 37.0 | 0.00 | 0.00 | 0.00 | 96 | 1010.0 |
| 20260504042504 | 29 | 78 | 37.0 | 3.2 | 0.00 | 0.00 | 0.00 | 93 | 1010.0 |
| 20260504042404 | 30 | 103 | 19.3 | 12.9 | 0.00 | 0.00 | 0.00 | 91 | 1009.9 |
| 20260504042304 | 30 | 108 | 12.9 | 12.9 | 0.00 | 0.00 | 0.00 | 87 | 1009.8 |
| 20260504042204 | 30 | 60 | 12.9 | 14.5 | 0.00 | 0.00 | 0.00 | 85 | 1009.8 |
| 20260504042104 | 31 | 44 | 14.5 | 12.9 | 0.00 | 0.00 | 0.00 | 84 | 1009.7 |
| 20260504042004 | 31 | 53 | 12.9 | 12.9 | 0.00 | 0.00 | 0.00 | 83 | 1009.7 |
| 20260504041905 | 31 | 60 | 12.9 | 9.7 | 0.00 | 0.00 | 0.00 | 82 | 1009.7 |
| 20260504041804 | 31 | 58 | 9.7 | 11.3 | 0.00 | 0.00 | 0.00 | 82 | 1009.6 |
| 20260504041704 | 32 | 52 | 11.3 | 9.7 | 0.00 | 0.00 | 0.00 | 81 | 1009.6 |
| 20260504041604 | 32 | 47 | 9.7 | 6.4 | 0.00 | 0.00 | 0.00 | 78 | 1009.6 |
| 20260504041510 | 32 | 62 | 6.4 | 3.2 | 0.00 | 0.00 | 0.00 | 76 | 1009.6 |
| 20260504041404 | 32 | 82 | 3.2 | 3.2 | 0.00 | 0.00 | 0.00 | 75 | 1009.6 |
| 20260504041306 | 32 | 107 | 3.2 | 0.0 | 0.00 | 0.00 | 0.00 | 75 | 1009.6 |
| 20260504041204 | 32 | 113 | 0.0 | 3.2 | 0.00 | 0.00 | 0.00 | 75 | 1009.6 |
| 20260504041104 | 32 | 135 | 3.2 | 0.0 | 0.00 | 0.00 | 0.00 | 75 | 1009.6 |
| 20260504041004 | 32 | 89 | 0.0 | 0.0 | 0.00 | 0.00 | 0.00 | 75 | 1009.6 |
| 20260504040904 | 32 | 116 | 0.0 | 1.6 | 0.00 | 0.00 | 0.00 | 75 | 1009.7 |
| 20260504040804 | 32 | 118 | 1.6 | 0.0 | 0.00 | 0.00 | 0.00 | 75 | 1009.7 |
| 20260504040704 | 32 | 196 | 0.0 | 1.6 | 0.00 | 0.00 | 0.00 | 76 | 1009.7 |
| 20260504040604 | 32 | 262 | 1.6 | 4.8 | 0.00 | 0.00 | 0.00 | 75 | 1009.7 |
| 20260504040504 | 32 | 262 | 4.8 | 4.8 | 0.00 | 0.00 | 0.00 | 75 | 1009.7 |
| 20260504040404 | 32 | 253 | 6.4 | 4.8 | 0.00 | 0.00 | 0.00 | 74 | 1009.7 |
| 20260504040303 | 32 | 281 | 4.8 | 3.2 | 0.00 | 0.00 | 0.00 | 75 | 1009.7 |
| 20260504040203 | 32 | 242 | 3.2 | 1.6 | 0.00 | 0.00 | 0.00 | 75 | 1009.7 |
| 20260504040103 | 32 | 230 | 1.6 | 0.0 | 0.00 | 0.00 | 0.00 | 75 | 1009.7 |
| 20260504040005 | 32 | 191 | 0.0 | 4.8 | 0.00 | 0.00 | 0.00 | 75 | 1009.7 |
| 20260504035903 | 32 | 191 | 4.8 | 4.8 | 0.00 | 0.00 | 0.00 | 75 | 1009.7 |
| 20260504035804 | 32 | 148 | 4.8 | 6.4 | 0.00 | 0.00 | 0.00 | 75 | 1009.7 |
| 20260504035703 | 32 | 111 | 6.4 | 6.4 | 0.00 | 0.00 | 0.00 | 74 | 1009.7 |
| 20260504035603 | 32 | 147 | 6.4 | 1.6 | 0.00 | 0.00 | 0.00 | 74 | 1009.7 |
| 20260504035504 | 32 | 137 | 1.6 | 3.2 | 0.00 | 0.00 | 0.00 | 74 | 1009.7 |
| 20260504035405 | 32 | 78 | 6.4 | 6.4 | 0.00 | 0.00 | 0.00 | 73 | 1009.7 |
| 20260504035305 | 33 | 106 | 6.4 | 6.4 | 0.00 | 0.00 | 0.00 | 74 | 1009.7 |
| 20260504035203 | 33 | 113 | 6.4 | 8.0 | 0.00 | 0.00 | 0.00 | 73 | 1009.7 |
| 20260504035103 | 33 | 113 | 8.0 | 4.8 | 0.00 | 0.00 | 0.00 | 73 | 1009.8 |
| 20260504035003 | 33 | 125 | 4.8 | 0.0 | 0.00 | 0.00 | 0.00 | 73 | 1009.8 |
| 20260504034906 | 33 | 163 | 0.0 | 1.6 | 0.00 | 0.00 | 0.00 | 73 | 1009.8 |
| 20260504034803 | 33 | 237 | 1.6 | 3.2 | 0.00 | 0.00 | 0.00 | 73 | 1009.8 |
| 20260504034703 | 33 | 237 | 3.2 | 0.0 | 0.00 | 0.00 | 0.00 | 74 | 1009.8 |
| 20260504034603 | 32 | 217 | 0.0 | 0.0 | 0.00 | 0.00 | 0.00 | 75 | 1009.8 |
| 20260504034503 | 32 | 141 | 0.0 | 6.4 | 0.00 | 0.00 | 0.00 | 73 | 1009.8 |
| 20260504034415 | 32 | 79 | 1.6 | 4.8 | 0.00 | 0.00 | 0.00 | 73 | 1009.9 |
| 20260504034303 | 32 | 78 | 4.8 | 6.4 | 0.00 | 0.00 | 0.00 | 74 | 1009.9 |
| 20260504034203 | 32 | 148 | 6.4 | 4.8 | 0.00 | 0.00 | 0.00 | 74 | 1009.9 |
| 20260504034103 | 32 | 138 | 4.8 | 3.2 | 0.00 | 0.00 | 0.00 | 76 | 1009.9 |
| 20260504034003 | 32 | 187 | 3.2 | 4.8 | 0.00 | 0.00 | 0.00 | 75 | 1009.9 |
| 20260504033903 | 32 | 193 | 4.8 | 6.4 | 0.00 | 0.00 | 0.00 | 74 | 1009.9 |
| 20260504033803 | 32 | 141 | 6.4 | 6.4 | 0.00 | 0.00 | 0.00 | 76 | 1009.9 |
| 20260504033703 | 32 | 172 | 6.4 | 4.8 | 0.00 | 0.00 | 0.00 | 76 | 1009.9 |
| 20260504033603 | 32 | 134 | 4.8 | 4.8 | 0.00 | 0.00 | 0.00 | 76 | 1009.9 |
| 20260504033503 | 32 | 187 | 4.8 | 4.8 | 0.00 | 0.00 | 0.00 | 77 | 1009.9 |
| 20260504033403 | 32 | 179 | 8.0 | 8.0 | 0.00 | 0.00 | 0.00 | 77 | 1009.9 |
| 20260504033334 | 32 | 180 | 8.0 | 3.2 | 0.00 | 0.00 | 0.00 | 77 | 1009.9 |
| 20260504033243 | 32 | 164 | 3.2 | 4.8 | 0.00 | 0.00 | 0.00 | 77 | 1009.9 |
| 20260504033126 | 32 | 184 | 4.8 | 4.8 | 0.00 | 0.00 | 0.00 | 76 | 1009.9 |
| 20260504033026 | 32 | 203 | 4.8 | 6.4 | 0.00 | 0.00 | 0.00 | 77 | 1009.9 |
| 20260504032903 | 32 | 170 | 6.4 | 4.8 | 0.00 | 0.00 | 0.00 | 78 | 1009.9 |
| 20260504032805 | 32 | 134 | 4.8 | 6.4 | 0.00 | 0.00 | 0.00 | 79 | 1009.9 |
| 20260504032703 | 32 | 165 | 6.4 | 4.8 | 0.00 | 0.00 | 0.00 | 79 | 1009.9 |
| 20260504032603 | 32 | 157 | 4.8 | 6.4 | 0.00 | 0.00 | 0.00 | 78 | 1009.9 |
| 20260504032503 | 32 | 142 | 6.4 | 3.2 | 0.00 | 0.00 | 0.00 | 78 | 1009.9 |
| 20260504032406 | 32 | 163 | 3.2 | 6.4 | 0.00 | 0.00 | 0.00 | 79 | 1009.9 |
| 20260504032304 | 32 | 189 | 6.4 | 8.0 | 0.00 | 0.00 | 0.00 | 79 | 1010.0 |
| 20260504032203 | 32 | 184 | 8.0 | 4.8 | 0.00 | 0.00 | 0.00 | 78 | 1010.0 |
| 20260504032103 | 32 | 174 | 4.8 | 3.2 | 0.00 | 0.00 | 0.00 | 79 | 1010.0 |
| 20260504032003 | 32 | 145 | 3.2 | 1.6 | 0.00 | 0.00 | 0.00 | 79 | 1010.0 |
| 20260504031903 | 32 | 73 | 1.6 | 1.6 | 0.00 | 0.00 | 0.00 | 80 | 1010.0 |
| 20260504031803 | 32 | 116 | 1.6 | 1.6 | 0.00 | 0.00 | 0.00 | 80 | 1010.0 |
| 20260504031703 | 32 | 24 | 1.6 | 0.0 | 0.00 | 0.00 | 0.00 | 79 | 1010.0 |
| 20260504031603 | 32 | 24 | 0.0 | 1.6 | 0.00 | 0.00 | 0.00 | 80 | 1010.0 |
| 20260504031536 | 32 | 149 | 1.6 | 4.8 | 0.00 | 0.00 | 0.00 | 80 | 1010.1 |
| 20260504031403 | 32 | 149 | 4.8 | 4.8 | 0.00 | 0.00 | 0.00 | 80 | 1010.1 |
| 20260504031303 | 32 | 136 | 4.8 | 6.4 | 0.00 | 0.00 | 0.00 | 80 | 1010.1 |
| 20260504031203 | 32 | 147 | 6.4 | 3.2 | 0.00 | 0.00 | 0.00 | 79 | 1010.1 |
| 20260504031103 | 32 | 145 | 3.2 | 4.8 | 0.00 | 0.00 | 0.00 | 81 | 1010.1 |
| 20260504031003 | 32 | 89 | 4.8 | 1.6 | 0.00 | 0.00 | 0.00 | 80 | 1010.1 |
| 20260504030903 | 31 | 202 | 1.6 | 3.2 | 0.00 | 0.00 | 0.00 | 81 | 1010.1 |
| 20260504030803 | 31 | 193 | 3.2 | 6.4 | 0.00 | 0.00 | 0.00 | 80 | 1010.1 |
| 20260504030703 | 31 | 170 | 6.4 | 3.2 | 0.00 | 0.00 | 0.00 | 80 | 1010.1 |
| 20260504030603 | 31 | 144 | 3.2 | 3.2 | 0.00 | 0.00 | 0.00 | 81 | 1010.1 |
| 20260504030503 | 31 | 148 | 3.2 | 3.2 | 0.00 | 0.00 | 0.00 | 80 | 1010.1 |
| 20260504030403 | 31 | 151 | 6.4 | 8.0 | 0.00 | 0.00 | 0.00 | 79 | 1010.1 |
| 20260504030303 | 31 | 153 | 8.0 | 8.0 | 0.00 | 0.00 | 0.00 | 80 | 1010.1 |
| 20260504030203 | 31 | 152 | 8.0 | 4.8 | 0.00 | 0.00 | 0.00 | 82 | 1010.1 |
| 20260504030009 | 31 | 67 | 3.2 | 6.4 | 0.00 | 0.00 | 0.00 | 81 | 1010.2 |
| 20260504025903 | 31 | 119 | 6.4 | 3.2 | 0.00 | 0.00 | 0.00 | 82 | 1010.2 |
| 20260504025803 | 31 | 151 | 3.2 | 3.2 | 0.00 | 0.00 | 0.00 | 83 | 1010.2 |
| 20260504025703 | 31 | 176 | 3.2 | 1.6 | 0.00 | 0.00 | 0.00 | 83 | 1010.2 |
| 20260504025603 | 31 | 188 | 1.6 | 3.2 | 0.00 | 0.00 | 0.00 | 84 | 1010.2 |
| 20260504025503 | 31 | 168 | 3.2 | 4.8 | 0.00 | 0.00 | 0.00 | 84 | 1010.2 |
| 20260504025403 | 31 | 163 | 6.4 | 1.6 | 0.00 | 0.00 | 0.00 | 84 | 1010.2 |
| 20260504025304 | 31 | 175 | 1.6 | 3.2 | 0.00 | 0.00 | 0.00 | 84 | 1010.2 |
| 20260504025203 | 31 | 138 | 3.2 | 4.8 | 0.00 | 0.00 | 0.00 | 82 | 1010.2 |
| 20260504025103 | 31 | 132 | 4.8 | 4.8 | 0.00 | 0.00 | 0.00 | 83 | 1010.2 |
| 20260504025003 | 31 | 98 | 4.8 | 6.4 | 0.00 | 0.00 | 0.00 | 83 | 1010.2 |
| 20260504024903 | 31 | 111 | 6.4 | 3.2 | 0.00 | 0.00 | 0.00 | 83 | 1010.2 |
| 20260504024803 | 31 | 129 | 3.2 | 4.8 | 0.00 | 0.00 | 0.00 | 84 | 1010.2 |
| 20260504024703 | 31 | 133 | 4.8 | 6.4 | 0.00 | 0.00 | 0.00 | 84 | 1010.2 |
| 20260504024603 | 31 | 52 | 6.4 | 4.8 | 0.00 | 0.00 | 0.00 | 84 | 1010.2 |
| 20260504024517 | 31 | 70 | 4.8 | 4.8 | 0.00 | 0.00 | 0.00 | 84 | 1010.2 |
| 20260504024403 | 31 | 79 | 4.8 | 3.2 | 0.00 | 0.00 | 0.00 | 83 | 1010.2 |
| 20260504024305 | 31 | 102 | 3.2 | 6.4 | 0.00 | 0.00 | 0.00 | 85 | 1010.2 |
| 20260504024203 | 31 | 75 | 6.4 | 8.0 | 0.00 | 0.00 | 0.00 | 85 | 1010.2 |
| 20260504024108 | 31 | 77 | 8.0 | 6.4 | 0.00 | 0.00 | 0.00 | 85 | 1010.2 |
| 20260504024003 | 31 | 64 | 6.4 | 8.0 | 0.00 | 0.00 | 0.00 | 85 | 1010.2 |
| 20260504023904 | 31 | 87 | 8.0 | 6.4 | 0.00 | 0.00 | 0.00 | 85 | 1010.2 |
| 20260504023803 | 31 | 94 | 6.4 | 1.6 | 0.00 | 0.00 | 0.00 | 85 | 1010.2 |
| 20260504023703 | 31 | 112 | 1.6 | 6.4 | 0.00 | 0.00 | 0.00 | 85 | 1010.2 |
| 20260504023603 | 31 | 150 | 6.4 | 3.2 | 0.00 | 0.00 | 0.00 | 84 | 1010.2 |
| 20260504023503 | 31 | 118 | 3.2 | 3.2 | 0.00 | 0.00 | 0.00 | 86 | 1010.2 |
| 20260504023403 | 31 | 152 | 3.2 | 3.2 | 0.00 | 0.00 | 0.00 | 86 | 1010.2 |
| 20260504023303 | 31 | 173 | 3.2 | 4.8 | 0.00 | 0.00 | 0.00 | 86 | 1010.2 |
| 20260504023203 | 31 | 138 | 4.8 | 4.8 | 0.00 | 0.00 | 0.00 | 85 | 1010.2 |
| 20260504023103 | 31 | 161 | 4.8 | 6.4 | 0.00 | 0.00 | 0.00 | 85 | 1010.2 |
| 20260504023030 | 31 | 167 | 6.4 | 3.2 | 0.00 | 0.00 | 0.00 | 85 | 1010.2 |
| 20260504022905 | 31 | 164 | 3.2 | 3.2 | 0.00 | 0.00 | 0.00 | 85 | 1010.2 |
| 20260504022803 | 31 | 97 | 3.2 | 6.4 | 0.00 | 0.00 | 0.00 | 86 | 1010.2 |
| 20260504022703 | 31 | 123 | 6.4 | 1.6 | 0.00 | 0.00 | 0.00 | 86 | 1010.2 |
| 20260504022603 | 31 | 121 | 1.6 | 0.0 | 0.00 | 0.00 | 0.00 | 86 | 1010.2 |
| 20260504022503 | 31 | 150 | 0.0 | 1.6 | 0.00 | 0.00 | 0.00 | 86 | 1010.3 |
| 20260504022403 | 30 | 128 | 4.8 | 3.2 | 0.00 | 0.00 | 0.00 | 86 | 1010.3 |
| 20260504022304 | 30 | 85 | 3.2 | 4.8 | 0.00 | 0.00 | 0.00 | 87 | 1010.3 |
| 20260504022203 | 30 | 130 | 4.8 | 4.8 | 0.00 | 0.00 | 0.00 | 87 | 1010.3 |
| 20260504022103 | 30 | 133 | 4.8 | 1.6 | 0.00 | 0.00 | 0.00 | 88 | 1010.3 |
| 20260504022003 | 30 | 130 | 1.6 | 3.2 | 0.00 | 0.00 | 0.00 | 88 | 1010.3 |
| 20260504021903 | 30 | 199 | 3.2 | 4.8 | 0.00 | 0.00 | 0.00 | 88 | 1010.3 |
| 20260504021803 | 30 | 223 | 4.8 | 3.2 | 0.00 | 0.00 | 0.00 | 87 | 1010.3 |
| 20260504021703 | 30 | 231 | 3.2 | 6.4 | 0.00 | 0.00 | 0.00 | 88 | 1010.3 |
| 20260504021604 | 30 | 228 | 6.4 | 3.2 | 0.00 | 0.00 | 0.00 | 87 | 1010.3 |
| 20260504021405 | 30 | 191 | 0.0 | 1.6 | 0.00 | 0.00 | 0.00 | 89 | 1010.3 |
| 20260504021303 | 30 | 191 | 1.6 | 3.2 | 0.00 | 0.00 | 0.00 | 89 | 1010.3 |
| 20260504021203 | 30 | 204 | 3.2 | 4.8 | 0.00 | 0.00 | 0.00 | 88 | 1010.3 |
| 20260504021103 | 30 | 206 | 4.8 | 3.2 | 0.00 | 0.00 | 0.00 | 89 | 1010.3 |
| 20260504021003 | 30 | 215 | 3.2 | 1.6 | 0.00 | 0.00 | 0.00 | 88 | 1010.3 |
| 20260504020920 | 30 | 214 | 1.6 | 0.0 | 0.00 | 0.00 | 0.00 | 89 | 1010.3 |
| 20260504020704 | 30 | 126 | 0.0 | 0.0 | 0.00 | 0.00 | 0.00 | 89 | 1010.3 |
| 20260504020603 | 30 | 126 | 0.0 | 0.0 | 0.00 | 0.00 | 0.00 | 89 | 1010.3 |
| 20260504020502 | 30 | 125 | 0.0 | 0.0 | 0.00 | 0.00 | 0.00 | 89 | 1010.3 |
| 20260504020402 | 30 | 125 | 1.6 | 0.0 | 0.00 | 0.00 | 0.00 | 89 | 1010.3 |
| 20260504020303 | 30 | 134 | 0.0 | 0.0 | 0.00 | 0.00 | 0.00 | 90 | 1010.3 |
| 20260504020203 | 30 | 134 | 0.0 | 4.8 | 0.00 | 0.00 | 0.00 | 90 | 1010.3 |
| 20260504020006 | 30 | 157 | 1.6 | 3.2 | 0.00 | 0.00 | 0.00 | 90 | 1010.3 |
| 20260504015903 | 30 | 160 | 3.2 | 4.8 | 0.00 | 0.00 | 0.00 | 90 | 1010.3 |
| 20260504015802 | 30 | 150 | 4.8 | 3.2 | 0.00 | 0.00 | 0.00 | 90 | 1010.3 |
| 20260504015702 | 30 | 164 | 3.2 | 0.0 | 0.00 | 0.00 | 0.00 | 90 | 1010.3 |
| 20260504015353 | 30 | 251 | 1.6 | 4.8 | 0.00 | 0.00 | 0.00 | 90 | 1010.2 |
| 20260504015253 | 30 | 241 | 4.8 | 6.4 | 0.00 | 0.00 | 0.00 | 89 | 1010.2 |
| 20260504015153 | 30 | 231 | 6.4 | 3.2 | 0.00 | 0.00 | 0.00 | 90 | 1010.2 |
| 20260504015056 | 30 | 234 | 3.2 | 1.6 | 0.00 | 0.00 | 0.00 | 90 | 1010.2 |
| 20260504014953 | 30 | 211 | 1.6 | 6.4 | 0.00 | 0.00 | 0.00 | 90 | 1010.1 |
| 20260504014853 | 30 | 221 | 6.4 | 1.6 | 0.00 | 0.00 | 0.00 | 90 | 1010.1 |
| 20260504014753 | 30 | 218 | 1.6 | 0.0 | 0.00 | 0.00 | 0.00 | 91 | 1010.1 |
| 20260504014653 | 30 | 119 | 0.0 | 0.0 | 0.00 | 0.00 | 0.00 | 92 | 1010.1 |
| 20260504014453 | 30 | 119 | 0.0 | 1.6 | 0.00 | 0.00 | 0.00 | 92 | 1010.1 |
| 20260504014353 | 29 | 161 | 1.6 | 1.6 | 0.00 | 0.00 | 0.00 | 93 | 1010.0 |
| 20260504014253 | 29 | 207 | 1.6 | 1.6 | 0.00 | 0.00 | 0.00 | 92 | 1010.0 |
| 20260504014155 | 29 | 219 | 1.6 | 3.2 | 0.00 | 0.00 | 0.00 | 92 | 1010.0 |
| 20260504014053 | 29 | 223 | 3.2 | 1.6 | 0.00 | 0.00 | 0.00 | 93 | 1010.0 |
| 20260504013953 | 29 | 215 | 1.6 | 0.0 | 0.00 | 0.00 | 0.00 | 94 | 1010.0 |
| 20260504013853 | 29 | 196 | 0.0 | 0.0 | 0.00 | 0.00 | 0.00 | 94 | 1010.0 |
| 20260504013753 | 29 | 227 | 0.0 | 0.0 | 0.00 | 0.00 | 0.00 | 94 | 1009.9 |
| 20260504013657 | 29 | 198 | 0.0 | 0.0 | 0.00 | 0.00 | 0.00 | 94 | 1009.9 |
| 20260504013553 | 28 | 194 | 0.0 | 1.6 | 0.00 | 0.00 | 0.00 | 94 | 1009.9 |
| 20260504013453 | 28 | 203 | 1.6 | 0.0 | 0.00 | 0.00 | 0.00 | 95 | 1009.9 |
| 20260504013353 | 28 | 202 | 1.6 | 1.6 | 0.00 | 0.00 | 0.00 | 94 | 1009.9 |
| 20260504013306 | 28 | 199 | 1.6 | 0.0 | 0.00 | 0.00 | 0.00 | 94 | 1009.9 |
| 20260504013153 | 28 | 207 | 0.0 | 0.0 | 0.00 | 0.00 | 0.00 | 95 | 1009.9 |
| 20260504013106 | 28 | 178 | 0.0 | 0.0 | 0.00 | 0.00 | 0.00 | 96 | 1009.9 |
| 20260504012953 | 28 | 182 | 0.0 | 0.0 | 0.00 | 0.00 | 0.00 | 96 | 1009.9 |
| 20260504012853 | 28 | 236 | 0.0 | 3.2 | 0.00 | 0.00 | 0.00 | 96 | 1009.9 |
| 20260504012753 | 28 | 238 | 3.2 | 1.6 | 0.00 | 0.00 | 0.00 | 96 | 1009.9 |
| 20260504012653 | 28 | 205 | 1.6 | 3.2 | 0.00 | 0.00 | 0.00 | 95 | 1009.9 |
| 20260504012553 | 28 | 214 | 3.2 | 0.0 | 0.00 | 0.00 | 0.00 | 96 | 1009.9 |
| 20260504012453 | 28 | 191 | 0.0 | 0.0 | 0.00 | 0.00 | 0.00 | 96 | 1009.9 |
| 20260504012353 | 28 | 203 | 0.0 | 0.0 | 0.00 | 0.00 | 0.00 | 98 | 1009.9 |
| 20260504012253 | 28 | 237 | 0.0 | 0.0 | 0.00 | 0.00 | 0.00 | 98 | 1009.9 |
| 20260504012153 | 28 | 215 | 0.0 | 0.0 | 0.00 | 0.00 | 0.00 | 98 | 1009.9 |
| 20260504012053 | 28 | 187 | 0.0 | 0.0 | 0.00 | 0.00 | 0.00 | 99 | 1009.9 |
| 20260504011953 | 28 | 186 | 0.0 | 0.0 | 0.00 | 0.00 | 0.00 | 99 | 1009.9 |
| 20260504011853 | 28 | 248 | 0.0 | 0.0 | 0.00 | 0.00 | 0.00 | 99 | 1009.9 |
| 20260504011753 | 28 | 248 | 0.0 | 0.0 | 0.00 | 0.00 | 0.00 | 99 | 1009.9 |
| 20260504011653 | 28 | 248 | 0.0 | 0.0 | 0.00 | 0.00 | 0.00 | 99 | 1009.9 |
| 20260504011558 | 27 | 197 | 0.0 | 0.0 | 0.00 | 0.00 | 0.00 | 99 | 1009.9 |
| 20260504011453 | 27 | 195 | 0.0 | 0.0 | 0.00 | 0.00 | 0.00 | 99 | 1009.9 |
| 20260504011353 | 27 | 195 | 0.0 | 0.0 | 0.00 | 0.00 | 0.00 | 99 | 1009.9 |
| 20260504011253 | 27 | 207 | 0.0 | 0.0 | 0.00 | 0.00 | 0.00 | 99 | 1009.9 |
| 20260504011154 | 27 | 205 | 0.0 | 1.6 | 0.00 | 0.00 | 0.00 | 99 | 1009.9 |
| 20260504011053 | 27 | 218 | 1.6 | 0.0 | 0.00 | 0.00 | 0.00 | 99 | 1009.9 |
| 20260504010953 | 27 | 222 | 0.0 | 0.0 | 0.00 | 0.00 | 0.00 | 99 | 1009.9 |
| 20260504010910 | 27 | 224 | 0.0 | 0.0 | 0.00 | 0.00 | 0.00 | 99 | 1009.9 |
| 20260504010754 | 27 | 222 | 0.0 | 0.0 | 0.00 | 0.00 | 0.00 | 99 | 1009.8 |
| 20260504010653 | 27 | 221 | 0.0 | 0.0 | 0.00 | 0.00 | 0.00 | 99 | 1009.8 |
| 20260504010553 | 27 | 209 | 0.0 | 0.0 | 0.00 | 0.00 | 0.00 | 99 | 1009.8 |
| 20260504010453 | 27 | 243 | 0.0 | 0.0 | 0.00 | 0.00 | 0.00 | 99 | 1009.8 |
| 20260504010353 | 27 | 243 | 0.0 | 0.0 | 0.00 | 0.00 | 0.00 | 99 | 1009.8 |
| 20260504010253 | 27 | 243 | 0.0 | 0.0 | 0.00 | 0.00 | 0.00 | 99 | 1009.8 |
| 20260504010153 | 27 | 243 | 0.0 | 0.0 | 0.00 | 0.00 | 0.00 | 99 | 1009.8 |
| 20260504010053 | 27 | 243 | 0.0 | 0.0 | 0.00 | 0.00 | 0.00 | 99 | 1009.8 |
| 20260504005953 | 27 | 243 | 0.0 | 0.0 | 0.00 | 0.00 | 0.00 | 99 | 1009.8 |
| 20260504005855 | 27 | 243 | 0.0 | 0.0 | 0.00 | 0.00 | 0.00 | 99 | 1009.8 |
| 20260504005755 | 27 | 224 | 0.0 | 0.0 | 0.00 | 0.00 | 0.00 | 99 | 1009.8 |
| 20260504005653 | 27 | 233 | 0.0 | 0.0 | 0.00 | 0.00 | 0.00 | 99 | 1009.8 |
| 20260504005555 | 27 | 219 | 0.0 | 0.0 | 0.00 | 0.00 | 0.00 | 99 | 1009.8 |
| 20260504004817 | 26 | 203 | 0.0 | 0.0 | 0.00 | 0.00 | 0.00 | 99 | 1009.4 |
| 20260504004718 | 26 | 202 | 0.0 | 0.0 | 0.00 | 0.00 | 0.00 | 99 | 1009.4 |
| 20260504004617 | 26 | 202 | 0.0 | 0.0 | 0.00 | 0.00 | 0.00 | 99 | 1009.4 |
| 20260504004523 | 26 | 214 | 0.0 | 0.0 | 0.00 | 0.00 | 0.00 | 99 | 1009.4 |
| 20260504004417 | 26 | 214 | 0.0 | 0.0 | 0.00 | 0.00 | 0.00 | 99 | 1009.4 |
| 20260504004317 | 26 | 214 | 0.0 | 0.0 | 0.00 | 0.00 | 0.00 | 99 | 1009.4 |
| 20260504004217 | 26 | 213 | 0.0 | 0.0 | 0.00 | 0.00 | 0.00 | 99 | 1009.3 |
| 20260504004117 | 26 | 213 | 0.0 | 0.0 | 0.00 | 0.00 | 0.00 | 99 | 1009.3 |
| 20260504004017 | 26 | 269 | 0.0 | 0.0 | 0.00 | 0.00 | 0.00 | 99 | 1009.3 |
| 20260504003917 | 26 | 269 | 0.0 | 0.0 | 0.00 | 0.00 | 0.00 | 99 | 1009.3 |
| 20260504003817 | 26 | 269 | 0.0 | 0.0 | 0.00 | 0.00 | 0.00 | 99 | 1009.3 |
| 20260504003717 | 26 | 274 | 0.0 | 0.0 | 0.00 | 0.00 | 0.00 | 99 | 1009.3 |
| 20260504003617 | 26 | 276 | 0.0 | 0.0 | 0.00 | 0.00 | 0.00 | 99 | 1009.3 |
| 20260504003517 | 26 | 276 | 0.0 | 0.0 | 0.00 | 0.00 | 0.00 | 99 | 1009.3 |
| 20260504003417 | 26 | 276 | 0.0 | 0.0 | 0.00 | 0.00 | 0.00 | 99 | 1009.3 |
| 20260504003317 | 26 | 276 | 0.0 | 0.0 | 0.00 | 0.00 | 0.00 | 99 | 1009.2 |
| 20260504003217 | 26 | 276 | 0.0 | 0.0 | 0.00 | 0.00 | 0.00 | 99 | 1009.2 |
| 20260504003117 | 26 | 276 | 0.0 | 1.6 | 0.00 | 0.00 | 0.00 | 99 | 1009.2 |
| 20260504003033 | 26 | 276 | 0.0 | 0.0 | 0.00 | 0.00 | 0.00 | 99 | 1009.2 |
| 20260504002917 | 26 | 276 | 0.0 | 0.0 | 0.00 | 0.00 | 0.00 | 99 | 1009.2 |
| 20260504002817 | 26 | 276 | 0.0 | 0.0 | 0.00 | 0.00 | 0.00 | 99 | 1009.2 |
| 20260504002717 | 26 | 276 | 0.0 | 0.0 | 0.00 | 0.00 | 0.00 | 99 | 1009.2 |
| 20260504002617 | 26 | 276 | 0.0 | 0.0 | 0.00 | 0.00 | 0.00 | 99 | 1009.1 |
| 20260504002517 | 26 | 276 | 0.0 | 0.0 | 0.00 | 0.00 | 0.00 | 99 | 1009.1 |
| 20260504002417 | 25 | 276 | 0.0 | 0.0 | 0.00 | 0.00 | 0.00 | 99 | 1009.1 |
| 20260504002317 | 25 | 276 | 0.0 | 0.0 | 0.00 | 0.00 | 0.00 | 99 | 1009.1 |
| 20260504002217 | 25 | 276 | 0.0 | 0.0 | 0.00 | 0.00 | 0.00 | 99 | 1009.1 |
| 20260504002117 | 25 | 276 | 0.0 | 4.8 | 0.00 | 0.00 | 0.00 | 99 | 1009.1 |
| 20260504002017 | 25 | 276 | 0.0 | 0.0 | 0.00 | 0.00 | 0.00 | 99 | 1009.1 |
| 20260504001917 | 25 | 276 | 0.0 | 3.2 | 0.00 | 0.00 | 0.00 | 99 | 1009.0 |
| 20260504001817 | 25 | 279 | 3.2 | 3.2 | 0.00 | 0.00 | 0.00 | 99 | 1009.0 |
| 20260504001717 | 25 | 279 | 3.2 | 3.2 | 0.00 | 0.00 | 0.00 | 99 | 1009.0 |
| 20260504001617 | 25 | 279 | 3.2 | 1.6 | 0.00 | 0.00 | 0.00 | 99 | 1009.0 |
| 20260504001517 | 25 | 282 | 1.6 | 3.2 | 0.00 | 0.00 | 0.00 | 99 | 1009.0 |
| 20260504001417 | 25 | 282 | 3.2 | 4.8 | 0.00 | 0.00 | 0.00 | 99 | 1009.0 |
| 20260504001319 | 25 | 282 | 4.8 | 4.8 | 0.00 | 0.00 | 0.00 | 99 | 1009.0 |
| 20260504001217 | 25 | 292 | 4.8 | 4.8 | 0.00 | 0.00 | 0.00 | 99 | 1009.0 |
| 20260504001117 | 25 | 283 | 4.8 | 3.2 | 0.00 | 0.00 | 0.00 | 99 | 1009.0 |
| 20260504001019 | 25 | 269 | 3.2 | 4.8 | 0.00 | 0.00 | 0.00 | 99 | 1008.9 |
| 20260504000917 | 25 | 277 | 4.8 | 6.4 | 0.00 | 0.00 | 0.00 | 99 | 1008.9 |
| 20260504000819 | 25 | 280 | 6.4 | 6.4 | 0.00 | 0.00 | 0.00 | 99 | 1008.9 |
| 20260504000717 | 25 | 276 | 6.4 | 6.4 | 0.00 | 0.00 | 0.00 | 99 | 1008.9 |
| 20260504000617 | 25 | 283 | 6.4 | 6.4 | 0.00 | 0.00 | 0.00 | 99 | 1008.9 |
| 20260504000517 | 25 | 278 | 6.4 | 4.8 | 0.00 | 0.00 | 0.00 | 99 | 1008.9 |
| 20260504000417 | 25 | 278 | 4.8 | 4.8 | 0.00 | 0.00 | 0.00 | 99 | 1008.8 |
| 20260504000317 | 25 | 278 | 4.8 | 3.2 | 0.00 | 0.00 | 0.00 | 99 | 1008.8 |
| 20260504000219 | 25 | 279 | 3.2 | 3.2 | 0.00 | 0.00 | 0.00 | 99 | 1008.8 |
| 20260504000117 | 25 | 271 | 3.2 | 3.2 | 0.00 | 0.00 | 0.00 | 99 | 1008.8 |
| 20260504000021 | 25 | 281 | 4.8 | 4.8 | 0.00 | 0.00 | 0.00 | 99 | 1008.7 |
| 20260503235917 | 25 | 282 | 4.8 | 1.6 | 0.00 | 0.00 | 0.00 | 99 | 1008.7 |
| 20260503235817 | 25 | 286 | 1.6 | 3.2 | 0.00 | 0.00 | 0.00 | 99 | 1008.7 |
| 20260503235717 | 25 | 286 | 3.2 | 3.2 | 0.00 | 0.00 | 0.00 | 99 | 1008.7 |
| 20260503235617 | 25 | 286 | 3.2 | 3.2 | 0.00 | 0.00 | 0.00 | 99 | 1008.7 |
| 20260503235517 | 25 | 294 | 3.2 | 3.2 | 0.00 | 0.00 | 0.00 | 99 | 1008.7 |
| 20260503235417 | 25 | 294 | 3.2 | 3.2 | 0.00 | 0.00 | 0.00 | 99 | 1008.7 |
| 20260503235317 | 25 | 294 | 3.2 | 3.2 | 0.00 | 0.00 | 0.00 | 99 | 1008.6 |
| 20260503235217 | 25 | 293 | 3.2 | 3.2 | 0.00 | 0.00 | 0.00 | 99 | 1008.6 |
| 20260503235117 | 25 | 270 | 3.2 | 4.8 | 0.00 | 0.00 | 0.00 | 99 | 1008.6 |
| 20260503235017 | 25 | 270 | 3.2 | 3.2 | 0.00 | 0.00 | 0.00 | 99 | 1008.6 |
| 20260503234930 | 25 | 270 | 3.2 | 3.2 | 0.00 | 0.00 | 0.00 | 99 | 1008.6 |
| 20260503234817 | 25 | 266 | 3.2 | 4.8 | 0.00 | 0.00 | 0.00 | 99 | 1008.5 |
| 20260503234717 | 25 | 266 | 4.8 | 3.2 | 0.00 | 0.00 | 0.00 | 99 | 1008.5 |
| 20260503234617 | 25 | 266 | 3.2 | 4.8 | 0.00 | 0.00 | 0.00 | 99 | 1008.5 |
| 20260503234534 | 25 | 258 | 4.8 | 4.8 | 0.00 | 0.00 | 0.00 | 99 | 1008.5 |
| 20260503234417 | 25 | 258 | 4.8 | 4.8 | 0.00 | 0.00 | 0.00 | 99 | 1008.5 |
| 20260503234317 | 25 | 259 | 4.8 | 6.4 | 0.00 | 0.00 | 0.00 | 99 | 1008.5 |
| 20260503234217 | 25 | 256 | 6.4 | 4.8 | 0.00 | 0.00 | 0.00 | 99 | 1008.4 |
| 20260503234117 | 25 | 257 | 4.8 | 4.8 | 0.00 | 0.00 | 0.00 | 99 | 1008.4 |
| 20260503234017 | 25 | 255 | 4.8 | 6.4 | 0.00 | 0.00 | 0.00 | 99 | 1008.4 |
| 20260503233917 | 25 | 247 | 6.4 | 4.8 | 0.00 | 0.00 | 0.00 | 99 | 1008.4 |
| 20260503233817 | 25 | 257 | 4.8 | 4.8 | 0.00 | 0.00 | 0.00 | 99 | 1008.4 |
| 20260503233718 | 25 | 249 | 4.8 | 3.2 | 0.00 | 0.00 | 0.00 | 99 | 1008.4 |
| 20260503233617 | 25 | 249 | 3.2 | 3.2 | 0.00 | 0.00 | 0.00 | 99 | 1008.3 |
| 20260503233517 | 25 | 248 | 3.2 | 4.8 | 0.00 | 0.00 | 0.00 | 99 | 1008.3 |
| 20260503233417 | 25 | 257 | 4.8 | 4.8 | 0.00 | 0.00 | 0.00 | 99 | 1008.3 |
| 20260503233317 | 25 | 257 | 4.8 | 4.8 | 0.00 | 0.00 | 0.00 | 99 | 1008.3 |
| 20260503233217 | 25 | 268 | 4.8 | 4.8 | 0.00 | 0.00 | 0.00 | 99 | 1008.3 |
| 20260503233117 | 25 | 250 | 4.8 | 3.2 | 0.00 | 0.00 | 0.00 | 99 | 1008.3 |
| 20260503233024 | 25 | 258 | 4.8 | 4.8 | 0.00 | 0.00 | 0.00 | 99 | 1008.3 |
| 20260503232917 | 25 | 250 | 4.8 | 4.8 | 0.00 | 0.00 | 0.00 | 99 | 1008.2 |
| 20260503232817 | 25 | 257 | 4.8 | 4.8 | 0.00 | 0.00 | 0.00 | 99 | 1008.2 |
| 20260503232717 | 25 | 265 | 4.8 | 4.8 | 0.00 | 0.00 | 0.00 | 99 | 1008.2 |
| 20260503232617 | 25 | 265 | 4.8 | 6.4 | 0.00 | 0.00 | 0.00 | 99 | 1008.2 |
| 20260503232519 | 25 | 270 | 6.4 | 4.8 | 0.00 | 0.00 | 0.00 | 99 | 1008.2 |
| 20260503232417 | 25 | 275 | 4.8 | 6.4 | 0.00 | 0.00 | 0.00 | 99 | 1008.2 |
| 20260503232317 | 25 | 285 | 6.4 | 4.8 | 0.00 | 0.00 | 0.00 | 99 | 1008.2 |
| 20260503232217 | 25 | 285 | 4.8 | 4.8 | 0.00 | 0.00 | 0.00 | 99 | 1008.2 |
| 20260503232117 | 25 | 285 | 4.8 | 3.2 | 0.00 | 0.00 | 0.00 | 99 | 1008.2 |
| 20260503232017 | 25 | 261 | 3.2 | 3.2 | 0.00 | 0.00 | 0.00 | 99 | 1008.2 |
| 20260503231917 | 25 | 227 | 3.2 | 3.2 | 0.00 | 0.00 | 0.00 | 99 | 1008.1 |
| 20260503231817 | 25 | 227 | 3.2 | 1.6 | 0.00 | 0.00 | 0.00 | 99 | 1008.1 |
| 20260503231717 | 25 | 227 | 1.6 | 1.6 | 0.00 | 0.00 | 0.00 | 99 | 1008.1 |
| 20260503231617 | 25 | 215 | 1.6 | 1.6 | 0.00 | 0.00 | 0.00 | 99 | 1008.1 |
| 20260503231534 | 25 | 215 | 1.6 | 1.6 | 0.00 | 0.00 | 0.00 | 99 | 1008.1 |
| 20260503231417 | 25 | 215 | 1.6 | 3.2 | 0.00 | 0.00 | 0.00 | 99 | 1008.1 |
| 20260503231317 | 25 | 215 | 3.2 | 1.6 | 0.00 | 0.00 | 0.00 | 99 | 1008.1 |
| 20260503231217 | 25 | 215 | 1.6 | 3.2 | 0.00 | 0.00 | 0.00 | 99 | 1008.1 |
| 20260503231117 | 25 | 215 | 3.2 | 3.2 | 0.00 | 0.00 | 0.00 | 99 | 1008.1 |
| 20260503231017 | 25 | 215 | 3.2 | 3.2 | 0.00 | 0.00 | 0.00 | 99 | 1008.1 |
| 20260503230917 | 25 | 242 | 3.2 | 1.6 | 0.00 | 0.00 | 0.00 | 99 | 1008.1 |
| 20260503230817 | 25 | 292 | 1.6 | 1.6 | 0.00 | 0.00 | 0.00 | 99 | 1008.1 |
| 20260503230717 | 25 | 292 | 1.6 | 1.6 | 0.00 | 0.00 | 0.00 | 99 | 1008.1 |
| 20260503230617 | 25 | 292 | 1.6 | 3.2 | 0.00 | 0.00 | 0.00 | 99 | 1008.1 |
| 20260503230518 | 25 | 292 | 3.2 | 3.2 | 0.00 | 0.00 | 0.00 | 99 | 1008.1 |
| 20260503230417 | 25 | 292 | 3.2 | 1.6 | 0.00 | 0.00 | 0.00 | 99 | 1008.1 |
| 20260503230316 | 25 | 292 | 1.6 | 1.6 | 0.00 | 0.00 | 0.00 | 99 | 1008.1 |
| 20260503230217 | 25 | 292 | 1.6 | 1.6 | 0.00 | 0.00 | 0.00 | 99 | 1008.1 |
| 20260503230116 | 25 | 292 | 1.6 | 4.8 | 0.00 | 0.00 | 0.00 | 99 | 1008.1 |
| 20260503230018 | 25 | 292 | 1.6 | 1.6 | 0.00 | 0.00 | 0.00 | 99 | 1008.1 |
| 20260503225917 | 25 | 292 | 1.6 | 1.6 | 0.00 | 0.00 | 0.00 | 99 | 1008.1 |
| 20260503225816 | 25 | 292 | 1.6 | 3.2 | 0.00 | 0.00 | 0.00 | 99 | 1008.1 |
| 20260503225716 | 25 | 292 | 3.2 | 3.2 | 0.00 | 0.00 | 0.00 | 99 | 1008.1 |
| 20260503225616 | 25 | 292 | 3.2 | 3.2 | 0.00 | 0.00 | 0.00 | 99 | 1008.1 |
| 20260503225517 | 25 | 292 | 3.2 | 3.2 | 0.00 | 0.00 | 0.00 | 99 | 1008.1 |
| 20260503225416 | 25 | 292 | 3.2 | 3.2 | 0.00 | 0.00 | 0.00 | 99 | 1008.1 |
| 20260503225316 | 25 | 296 | 3.2 | 3.2 | 0.00 | 0.00 | 0.00 | 99 | 1008.1 |
| 20260503225216 | 25 | 300 | 3.2 | 4.8 | 0.00 | 0.00 | 0.00 | 99 | 1008.1 |
| 20260503225116 | 25 | 300 | 4.8 | 4.8 | 0.00 | 0.00 | 0.00 | 99 | 1008.1 |
| 20260503225016 | 25 | 301 | 4.8 | 4.8 | 0.00 | 0.00 | 0.00 | 99 | 1008.1 |
| 20260503224916 | 25 | 302 | 4.8 | 6.4 | 0.00 | 0.00 | 0.00 | 99 | 1008.1 |
| 20260503224816 | 25 | 302 | 6.4 | 3.2 | 0.00 | 0.00 | 0.00 | 99 | 1008.1 |
| 20260503224716 | 25 | 298 | 3.2 | 3.2 | 0.00 | 0.00 | 0.00 | 99 | 1008.1 |
| 20260503224616 | 25 | 277 | 3.2 | 3.2 | 0.00 | 0.00 | 0.00 | 99 | 1008.1 |
| 20260503224522 | 25 | 277 | 3.2 | 3.2 | 0.00 | 0.00 | 0.00 | 99 | 1008.1 |
| 20260503224416 | 25 | 277 | 3.2 | 3.2 | 0.00 | 0.00 | 0.00 | 99 | 1008.1 |
| 20260503224316 | 25 | 277 | 3.2 | 4.8 | 0.00 | 0.00 | 0.00 | 99 | 1008.1 |
| 20260503224216 | 25 | 277 | 4.8 | 4.8 | 0.00 | 0.00 | 0.00 | 99 | 1008.1 |
| 20260503224116 | 25 | 277 | 4.8 | 3.2 | 0.00 | 0.00 | 0.00 | 99 | 1008.1 |
| 20260503224016 | 25 | 277 | 4.8 | 4.8 | 0.00 | 0.00 | 0.00 | 99 | 1008.1 |
| 20260503223916 | 25 | 277 | 4.8 | 3.2 | 0.00 | 0.00 | 0.00 | 99 | 1008.1 |
| 20260503223818 | 25 | 296 | 3.2 | 3.2 | 0.00 | 0.00 | 0.00 | 99 | 1008.1 |
| 20260503223716 | 25 | 299 | 3.2 | 4.8 | 0.00 | 0.00 | 0.00 | 99 | 1008.1 |
| 20260503223616 | 25 | 299 | 4.8 | 4.8 | 0.00 | 0.00 | 0.00 | 99 | 1008.1 |
| 20260503223516 | 25 | 300 | 4.8 | 4.8 | 0.00 | 0.00 | 0.00 | 99 | 1008.1 |
| 20260503223416 | 25 | 301 | 4.8 | 3.2 | 0.00 | 0.00 | 0.00 | 99 | 1008.1 |
| 20260503223316 | 25 | 283 | 3.2 | 3.2 | 0.00 | 0.00 | 0.00 | 99 | 1008.1 |
| 20260503223216 | 25 | 276 | 3.2 | 3.2 | 0.00 | 0.00 | 0.00 | 99 | 1008.1 |
| 20260503223130 | 25 | 276 | 3.2 | 3.2 | 0.00 | 0.00 | 0.00 | 99 | 1008.1 |
| 20260503223016 | 25 | 272 | 3.2 | 3.2 | 0.00 | 0.00 | 0.00 | 99 | 1008.1 |
| 20260503222916 | 25 | 271 | 3.2 | 3.2 | 0.00 | 0.00 | 0.00 | 99 | 1008.1 |
| 20260503222816 | 25 | 271 | 3.2 | 3.2 | 0.00 | 0.00 | 0.00 | 99 | 1008.1 |
| 20260503222716 | 25 | 271 | 3.2 | 1.6 | 0.00 | 0.00 | 0.00 | 99 | 1008.1 |
| 20260503222616 | 25 | 271 | 1.6 | 1.6 | 0.00 | 0.00 | 0.00 | 99 | 1008.1 |
| 20260503222516 | 25 | 271 | 1.6 | 3.2 | 0.00 | 0.00 | 0.00 | 99 | 1008.1 |
| 20260503222416 | 25 | 271 | 3.2 | 3.2 | 0.00 | 0.00 | 0.00 | 99 | 1008.1 |
| 20260503222316 | 25 | 271 | 3.2 | 1.6 | 0.00 | 0.00 | 0.00 | 99 | 1008.1 |
| 20260503222216 | 25 | 271 | 1.6 | 1.6 | 0.00 | 0.00 | 0.00 | 99 | 1008.1 |
| 20260503222116 | 25 | 271 | 1.6 | 3.2 | 0.00 | 0.00 | 0.00 | 99 | 1008.1 |
| 20260503222016 | 25 | 271 | 3.2 | 3.2 | 0.00 | 0.00 | 0.00 | 99 | 1008.1 |
| 20260503221916 | 25 | 271 | 3.2 | 3.2 | 0.00 | 0.00 | 0.00 | 99 | 1008.1 |
| 20260503221816 | 25 | 271 | 3.2 | 3.2 | 0.00 | 0.00 | 0.00 | 99 | 1008.1 |
| 20260503221716 | 25 | 271 | 3.2 | 3.2 | 0.00 | 0.00 | 0.00 | 99 | 1008.1 |
| 20260503221616 | 25 | 271 | 3.2 | 3.2 | 0.00 | 0.00 | 0.00 | 99 | 1008.1 |
| 20260503221522 | 25 | 271 | 3.2 | 3.2 | 0.00 | 0.00 | 0.00 | 99 | 1008.1 |
| 20260503221416 | 25 | 289 | 3.2 | 3.2 | 0.00 | 0.00 | 0.00 | 99 | 1008.1 |
| 20260503221316 | 25 | 289 | 3.2 | 3.2 | 0.00 | 0.00 | 0.00 | 99 | 1008.1 |
| 20260503221216 | 25 | 290 | 3.2 | 3.2 | 0.00 | 0.00 | 0.00 | 99 | 1008.1 |
| 20260503221116 | 25 | 254 | 3.2 | 4.8 | 0.00 | 0.00 | 0.00 | 99 | 1008.1 |
| 20260503221016 | 25 | 242 | 3.2 | 3.2 | 0.00 | 0.00 | 0.00 | 99 | 1008.1 |
| 20260503220916 | 25 | 234 | 3.2 | 3.2 | 0.00 | 0.00 | 0.00 | 99 | 1008.1 |
| 20260503220816 | 25 | 234 | 3.2 | 3.2 | 0.00 | 0.00 | 0.00 | 99 | 1008.1 |
| 20260503220716 | 25 | 234 | 3.2 | 3.2 | 0.00 | 0.00 | 0.00 | 99 | 1008.1 |
| 20260503220620 | 25 | 234 | 3.2 | 3.2 | 0.00 | 0.00 | 0.00 | 99 | 1008.1 |
| 20260503220516 | 25 | 234 | 3.2 | 4.8 | 0.00 | 0.00 | 0.00 | 99 | 1008.1 |
| 20260503220416 | 25 | 246 | 4.8 | 3.2 | 0.00 | 0.00 | 0.00 | 99 | 1008.1 |
| 20260503220316 | 25 | 246 | 3.2 | 3.2 | 0.00 | 0.00 | 0.00 | 99 | 1008.1 |
| 20260503220220 | 25 | 246 | 3.2 | 3.2 | 0.00 | 0.00 | 0.00 | 99 | 1008.1 |
| 20260503220116 | 25 | 246 | 3.2 | 4.8 | 0.00 | 0.00 | 0.00 | 99 | 1008.0 |
| 20260503220022 | 25 | 247 | 3.2 | 3.2 | 0.00 | 0.00 | 0.00 | 99 | 1008.0 |
| 20260503215916 | 25 | 247 | 3.2 | 3.2 | 0.00 | 0.00 | 0.00 | 99 | 1008.0 |
| 20260503215816 | 25 | 247 | 3.2 | 4.8 | 0.00 | 0.00 | 0.00 | 99 | 1008.0 |
| 20260503215716 | 25 | 247 | 4.8 | 6.4 | 0.00 | 0.00 | 0.00 | 99 | 1008.0 |
| 20260503215616 | 25 | 251 | 6.4 | 4.8 | 0.00 | 0.00 | 0.00 | 99 | 1008.0 |
| 20260503215516 | 25 | 261 | 4.8 | 6.4 | 0.00 | 0.00 | 0.00 | 99 | 1008.0 |
| 20260503215418 | 25 | 265 | 6.4 | 6.4 | 0.00 | 0.00 | 0.00 | 99 | 1008.0 |
| 20260503215316 | 25 | 269 | 6.4 | 4.8 | 0.00 | 0.00 | 0.00 | 99 | 1008.0 |
| 20260503215216 | 25 | 272 | 4.8 | 4.8 | 0.00 | 0.00 | 0.00 | 99 | 1008.0 |
| 20260503215116 | 25 | 272 | 4.8 | 3.2 | 0.00 | 0.00 | 0.00 | 99 | 1008.0 |
| 20260503215016 | 25 | 272 | 4.8 | 4.8 | 0.00 | 0.00 | 0.00 | 99 | 1008.0 |
| 20260503214916 | 25 | 272 | 4.8 | 3.2 | 0.00 | 0.00 | 0.00 | 99 | 1008.0 |
| 20260503214816 | 25 | 272 | 3.2 | 4.8 | 0.00 | 0.00 | 0.00 | 99 | 1008.0 |
| 20260503214716 | 25 | 272 | 4.8 | 3.2 | 0.00 | 0.00 | 0.00 | 99 | 1008.0 |
| 20260503214616 | 25 | 272 | 3.2 | 3.2 | 0.00 | 0.00 | 0.00 | 99 | 1008.0 |
| 20260503214605 | 25 | 272 | 3.2 | 3.2 | 0.00 | 0.00 | 0.00 | 99 | 1008.0 |
| 20260503214416 | 25 | 272 | 3.2 | 3.2 | 0.00 | 0.00 | 0.00 | 99 | 1008.0 |
| 20260503214316 | 25 | 272 | 3.2 | 3.2 | 0.00 | 0.00 | 0.00 | 99 | 1008.0 |
| 20260503214216 | 25 | 272 | 3.2 | 3.2 | 0.00 | 0.00 | 0.00 | 99 | 1008.0 |
| 20260503214116 | 25 | 272 | 3.2 | 3.2 | 0.00 | 0.00 | 0.00 | 99 | 1007.9 |
| 20260503214016 | 25 | 272 | 1.6 | 1.6 | 0.00 | 0.00 | 0.00 | 99 | 1007.9 |
| 20260503213916 | 25 | 272 | 1.6 | 1.6 | 0.00 | 0.00 | 0.00 | 99 | 1007.9 |
| 20260503213816 | 25 | 272 | 1.6 | 3.2 | 0.00 | 0.00 | 0.00 | 99 | 1007.9 |
| 20260503213716 | 25 | 272 | 3.2 | 3.2 | 0.00 | 0.00 | 0.00 | 99 | 1007.9 |
| 20260503213616 | 25 | 272 | 3.2 | 3.2 | 0.00 | 0.00 | 0.00 | 99 | 1007.9 |
| 20260503213516 | 25 | 272 | 3.2 | 3.2 | 0.00 | 0.00 | 0.00 | 99 | 1007.9 |
| 20260503213416 | 25 | 272 | 3.2 | 4.8 | 0.00 | 0.00 | 0.00 | 99 | 1007.9 |
| 20260503213316 | 25 | 269 | 4.8 | 4.8 | 0.00 | 0.00 | 0.00 | 99 | 1007.9 |
| 20260503213216 | 25 | 269 | 4.8 | 4.8 | 0.00 | 0.00 | 0.00 | 99 | 1007.9 |
| 20260503213118 | 25 | 269 | 4.8 | 4.8 | 0.00 | 0.00 | 0.00 | 99 | 1007.9 |
| 20260503212916 | 25 | 269 | 4.8 | 3.2 | 0.00 | 0.00 | 0.00 | 99 | 1007.9 |
| 20260503212816 | 25 | 269 | 3.2 | 3.2 | 0.00 | 0.00 | 0.00 | 99 | 1007.9 |
| 20260503212718 | 25 | 269 | 3.2 | 3.2 | 0.00 | 0.00 | 0.00 | 99 | 1007.9 |
| 20260503212616 | 25 | 269 | 3.2 | 1.6 | 0.00 | 0.00 | 0.00 | 99 | 1007.9 |
| 20260503212516 | 25 | 269 | 1.6 | 1.6 | 0.00 | 0.00 | 0.00 | 99 | 1007.9 |
| 20260503212416 | 25 | 269 | 1.6 | 1.6 | 0.00 | 0.00 | 0.00 | 99 | 1007.9 |
| 20260503212316 | 25 | 269 | 1.6 | 1.6 | 0.00 | 0.00 | 0.00 | 99 | 1007.9 |
| 20260503212216 | 25 | 269 | 1.6 | 1.6 | 0.00 | 0.00 | 0.00 | 99 | 1007.9 |
| 20260503212116 | 25 | 269 | 1.6 | 0.0 | 0.00 | 0.00 | 0.00 | 99 | 1007.9 |
| 20260503212016 | 25 | 269 | 1.6 | 1.6 | 0.00 | 0.00 | 0.00 | 99 | 1007.9 |
| 20260503211916 | 25 | 269 | 1.6 | 1.6 | 0.00 | 0.00 | 0.00 | 99 | 1007.9 |
| 20260503211816 | 25 | 269 | 1.6 | 1.6 | 0.00 | 0.00 | 0.00 | 99 | 1007.9 |
| 20260503211716 | 25 | 269 | 1.6 | 3.2 | 0.00 | 0.00 | 0.00 | 99 | 1007.9 |
| 20260503211616 | 25 | 266 | 3.2 | 3.2 | 0.00 | 0.00 | 0.00 | 99 | 1007.9 |
| 20260503211518 | 25 | 266 | 3.2 | 3.2 | 0.00 | 0.00 | 0.00 | 99 | 1007.9 |
| 20260503211416 | 25 | 266 | 3.2 | 3.2 | 0.00 | 0.00 | 0.00 | 99 | 1007.9 |
| 20260503211316 | 25 | 263 | 3.2 | 3.2 | 0.00 | 0.00 | 0.00 | 99 | 1007.9 |
| 20260503211216 | 25 | 262 | 3.2 | 1.6 | 0.00 | 0.00 | 0.00 | 99 | 1007.9 |
| 20260503211117 | 25 | 262 | 1.6 | 0.0 | 0.00 | 0.00 | 0.00 | 99 | 1007.9 |
| 20260503211016 | 25 | 262 | 1.6 | 0.0 | 0.00 | 0.00 | 0.00 | 99 | 1007.9 |
| 20260503210915 | 25 | 262 | 0.0 | 0.0 | 0.00 | 0.00 | 0.00 | 99 | 1007.9 |
| 20260503210815 | 25 | 262 | 0.0 | 0.0 | 0.00 | 0.00 | 0.00 | 99 | 1007.8 |
| 20260503210717 | 25 | 262 | 0.0 | 0.0 | 0.00 | 0.00 | 0.00 | 99 | 1007.8 |
| 20260503210615 | 25 | 262 | 0.0 | 0.0 | 0.00 | 0.00 | 0.00 | 99 | 1007.8 |
| 20260503210515 | 25 | 262 | 0.0 | 0.0 | 0.00 | 0.00 | 0.00 | 99 | 1007.8 |
| 20260503210416 | 25 | 263 | 0.0 | 0.0 | 0.00 | 0.00 | 0.00 | 99 | 1007.8 |
| 20260503210315 | 25 | 266 | 0.0 | 0.0 | 0.00 | 0.00 | 0.00 | 99 | 1007.8 |
| 20260503210215 | 25 | 266 | 0.0 | 0.0 | 0.00 | 0.00 | 0.00 | 99 | 1007.8 |
| 20260503210115 | 25 | 266 | 0.0 | 0.0 | 0.00 | 0.00 | 0.00 | 99 | 1007.8 |
| 20260503210015 | 25 | 266 | 0.0 | 0.0 | 0.00 | 0.00 | 0.00 | 99 | 1007.8 |
| 20260503205915 | 25 | 266 | 0.0 | 0.0 | 0.00 | 0.00 | 0.00 | 99 | 1007.8 |
| 20260503205815 | 25 | 266 | 0.0 | 0.0 | 0.00 | 0.00 | 0.00 | 99 | 1007.7 |
| 20260503205715 | 25 | 266 | 0.0 | 0.0 | 0.00 | 0.00 | 0.00 | 99 | 1007.7 |
| 20260503205615 | 25 | 266 | 0.0 | 0.0 | 0.00 | 0.00 | 0.00 | 99 | 1007.7 |
| 20260503205515 | 25 | 266 | 0.0 | 0.0 | 0.00 | 0.00 | 0.00 | 99 | 1007.7 |
| 20260503205415 | 25 | 266 | 0.0 | 0.0 | 0.00 | 0.00 | 0.00 | 99 | 1007.7 |
| 20260503205315 | 25 | 266 | 0.0 | 0.0 | 0.00 | 0.00 | 0.00 | 99 | 1007.7 |
| 20260503205215 | 25 | 266 | 0.0 | 0.0 | 0.00 | 0.00 | 0.00 | 99 | 1007.7 |
| 20260503205115 | 25 | 266 | 0.0 | 1.6 | 0.00 | 0.00 | 0.00 | 99 | 1007.7 |
| 20260503205015 | 25 | 266 | 0.0 | 0.0 | 0.00 | 0.00 | 0.00 | 99 | 1007.7 |
| 20260503204915 | 25 | 266 | 0.0 | 0.0 | 0.00 | 0.00 | 0.00 | 99 | 1007.7 |
| 20260503204815 | 25 | 266 | 0.0 | 0.0 | 0.00 | 0.00 | 0.00 | 99 | 1007.7 |
| 20260503204715 | 25 | 266 | 0.0 | 0.0 | 0.00 | 0.00 | 0.00 | 99 | 1007.7 |
| 20260503204615 | 25 | 266 | 0.0 | 1.6 | 0.00 | 0.00 | 0.00 | 99 | 1007.7 |
| 20260503204521 | 25 | 266 | 1.6 | 1.6 | 0.00 | 0.00 | 0.00 | 99 | 1007.7 |
| 20260503204415 | 25 | 266 | 1.6 | 1.6 | 0.00 | 0.00 | 0.00 | 99 | 1007.7 |
| 20260503204315 | 25 | 266 | 1.6 | 1.6 | 0.00 | 0.00 | 0.00 | 99 | 1007.7 |
| 20260503204215 | 25 | 266 | 1.6 | 1.6 | 0.00 | 0.00 | 0.00 | 99 | 1007.7 |
| 20260503204115 | 25 | 266 | 1.6 | 0.0 | 0.00 | 0.00 | 0.00 | 99 | 1007.7 |
| 20260503204015 | 25 | 266 | 3.2 | 3.2 | 0.00 | 0.00 | 0.00 | 99 | 1007.7 |
| 20260503203915 | 25 | 266 | 3.2 | 0.0 | 0.00 | 0.00 | 0.00 | 99 | 1007.7 |
| 20260503203815 | 25 | 266 | 0.0 | 0.0 | 0.00 | 0.00 | 0.00 | 99 | 1007.7 |
| 20260503203715 | 25 | 266 | 0.0 | 0.0 | 0.00 | 0.00 | 0.00 | 99 | 1007.7 |
| 20260503203615 | 25 | 266 | 0.0 | 0.0 | 0.00 | 0.00 | 0.00 | 99 | 1007.7 |
| 20260503203515 | 25 | 266 | 0.0 | 0.0 | 0.00 | 0.00 | 0.00 | 99 | 1007.7 |
| 20260503203415 | 25 | 266 | 0.0 | 0.0 | 0.00 | 0.00 | 0.00 | 99 | 1007.7 |
| 20260503203315 | 25 | 266 | 0.0 | 0.0 | 0.00 | 0.00 | 0.00 | 99 | 1007.7 |
| 20260503203215 | 25 | 266 | 0.0 | 0.0 | 0.00 | 0.00 | 0.00 | 99 | 1007.7 |
| 20260503203115 | 25 | 266 | 0.0 | 0.0 | 0.00 | 0.00 | 0.00 | 99 | 1007.7 |
| 20260503203034 | 25 | 266 | 0.0 | 0.0 | 0.00 | 0.00 | 0.00 | 99 | 1007.7 |
| 20260503202915 | 25 | 266 | 0.0 | 0.0 | 0.00 | 0.00 | 0.00 | 99 | 1007.7 |
| 20260503202815 | 25 | 266 | 0.0 | 0.0 | 0.00 | 0.00 | 0.00 | 99 | 1007.7 |
| 20260503202715 | 25 | 266 | 0.0 | 0.0 | 0.00 | 0.00 | 0.00 | 99 | 1007.7 |
| 20260503202615 | 25 | 266 | 0.0 | 0.0 | 0.00 | 0.00 | 0.00 | 99 | 1007.7 |
| 20260503202515 | 25 | 266 | 0.0 | 0.0 | 0.00 | 0.00 | 0.00 | 99 | 1007.7 |
| 20260503202415 | 25 | 266 | 0.0 | 0.0 | 0.00 | 0.00 | 0.00 | 99 | 1007.7 |
| 20260503202315 | 25 | 266 | 0.0 | 0.0 | 0.00 | 0.00 | 0.00 | 99 | 1007.7 |
| 20260503202215 | 25 | 266 | 0.0 | 0.0 | 0.00 | 0.00 | 0.00 | 99 | 1007.7 |
| 20260503202115 | 25 | 266 | 0.0 | 0.0 | 0.00 | 0.00 | 0.00 | 99 | 1007.7 |
| 20260503202015 | 25 | 266 | 0.0 | 0.0 | 0.00 | 0.00 | 0.00 | 99 | 1007.7 |
| 20260503201915 | 25 | 266 | 0.0 | 0.0 | 0.00 | 0.00 | 0.00 | 99 | 1007.8 |
| 20260503201815 | 25 | 266 | 0.0 | 0.0 | 0.00 | 0.00 | 0.00 | 99 | 1007.8 |
| 20260503201715 | 25 | 266 | 0.0 | 0.0 | 0.00 | 0.00 | 0.00 | 99 | 1007.8 |
| 20260503201615 | 25 | 266 | 0.0 | 0.0 | 0.00 | 0.00 | 0.00 | 99 | 1007.8 |
| 20260503201517 | 25 | 266 | 0.0 | 0.0 | 0.00 | 0.00 | 0.00 | 99 | 1007.7 |
| 20260503201415 | 25 | 266 | 0.0 | 0.0 | 0.00 | 0.00 | 0.00 | 99 | 1007.7 |
| 20260503201315 | 25 | 266 | 0.0 | 0.0 | 0.00 | 0.00 | 0.00 | 99 | 1007.7 |
| 20260503201215 | 25 | 266 | 0.0 | 0.0 | 0.00 | 0.00 | 0.00 | 99 | 1007.7 |
| 20260503201115 | 25 | 266 | 0.0 | 0.0 | 0.00 | 0.00 | 0.00 | 99 | 1007.7 |
| 20260503201015 | 25 | 266 | 0.0 | 0.0 | 0.00 | 0.00 | 0.00 | 99 | 1007.7 |
| 20260503200915 | 25 | 266 | 0.0 | 0.0 | 0.00 | 0.00 | 0.00 | 99 | 1007.7 |
| 20260503200815 | 25 | 266 | 0.0 | 0.0 | 0.00 | 0.00 | 0.00 | 99 | 1007.7 |
| 20260503200715 | 25 | 266 | 0.0 | 0.0 | 0.00 | 0.00 | 0.00 | 99 | 1007.7 |
| 20260503200615 | 25 | 266 | 0.0 | 0.0 | 0.00 | 0.00 | 0.00 | 99 | 1007.7 |
| 20260503200515 | 25 | 266 | 0.0 | 0.0 | 0.00 | 0.00 | 0.00 | 99 | 1007.7 |
| 20260503200415 | 25 | 266 | 0.0 | 0.0 | 0.00 | 0.00 | 0.00 | 99 | 1007.7 |
| 20260503200315 | 25 | 266 | 0.0 | 0.0 | 0.00 | 0.00 | 0.00 | 99 | 1007.7 |
| 20260503200215 | 25 | 266 | 0.0 | 0.0 | 0.00 | 0.00 | 0.00 | 99 | 1007.7 |
| 20260503200115 | 25 | 266 | 0.0 | 0.0 | 0.00 | 0.00 | 0.00 | 99 | 1007.7 |
| 20260503200021 | 25 | 266 | 0.0 | 0.0 | 0.00 | 0.00 | 0.00 | 99 | 1007.7 |
| 20260503195915 | 25 | 266 | 0.0 | 0.0 | 0.00 | 0.00 | 0.00 | 99 | 1007.7 |
| 20260503195815 | 25 | 266 | 0.0 | 0.0 | 0.00 | 0.00 | 0.00 | 99 | 1007.8 |
| 20260503195715 | 25 | 266 | 0.0 | 0.0 | 0.00 | 0.00 | 0.00 | 99 | 1007.8 |
| 20260503195615 | 25 | 266 | 0.0 | 0.0 | 0.00 | 0.00 | 0.00 | 99 | 1007.8 |
| 20260503195515 | 25 | 266 | 0.0 | 0.0 | 0.00 | 0.00 | 0.00 | 99 | 1007.8 |
| 20260503195415 | 25 | 266 | 0.0 | 0.0 | 0.00 | 0.00 | 0.00 | 99 | 1007.8 |
| 20260503195315 | 25 | 266 | 0.0 | 0.0 | 0.00 | 0.00 | 0.00 | 99 | 1007.8 |
| 20260503195215 | 25 | 266 | 0.0 | 0.0 | 0.00 | 0.00 | 0.00 | 99 | 1007.8 |
| 20260503195115 | 25 | 266 | 0.0 | 0.0 | 0.00 | 0.00 | 0.00 | 99 | 1007.8 |
| 20260503195015 | 25 | 266 | 0.0 | 0.0 | 0.00 | 0.00 | 0.00 | 99 | 1007.8 |
| 20260503194915 | 25 | 266 | 0.0 | 0.0 | 0.00 | 0.00 | 0.00 | 99 | 1007.8 |
| 20260503194815 | 25 | 266 | 0.0 | 0.0 | 0.00 | 0.00 | 0.00 | 99 | 1007.8 |
| 20260503194715 | 25 | 266 | 0.0 | 0.0 | 0.00 | 0.00 | 0.00 | 99 | 1007.8 |
| 20260503194615 | 25 | 266 | 0.0 | 0.0 | 0.00 | 0.00 | 0.00 | 99 | 1007.8 |
| 20260503194516 | 25 | 266 | 0.0 | 0.0 | 0.00 | 0.00 | 0.00 | 99 | 1007.8 |
| 20260503194415 | 25 | 266 | 0.0 | 0.0 | 0.00 | 0.00 | 0.00 | 99 | 1007.8 |
| 20260503194315 | 25 | 266 | 0.0 | 0.0 | 0.00 | 0.00 | 0.00 | 99 | 1007.8 |
| 20260503194215 | 25 | 266 | 0.0 | 0.0 | 0.00 | 0.00 | 0.00 | 99 | 1007.9 |
| 20260503194115 | 25 | 266 | 0.0 | 0.0 | 0.00 | 0.00 | 0.00 | 99 | 1007.9 |
| 20260503194015 | 25 | 266 | 0.0 | 0.0 | 0.00 | 0.00 | 0.00 | 99 | 1007.9 |
| 20260503193915 | 25 | 266 | 0.0 | 0.0 | 0.00 | 0.00 | 0.00 | 99 | 1007.9 |
| 20260503193815 | 25 | 266 | 0.0 | 0.0 | 0.00 | 0.00 | 0.00 | 99 | 1007.9 |
| 20260503193715 | 25 | 266 | 0.0 | 0.0 | 0.00 | 0.00 | 0.00 | 99 | 1007.9 |
| 20260503193615 | 25 | 266 | 0.0 | 0.0 | 0.00 | 0.00 | 0.00 | 99 | 1007.9 |
| 20260503193515 | 25 | 266 | 0.0 | 0.0 | 0.00 | 0.00 | 0.00 | 99 | 1007.9 |
| 20260503193415 | 25 | 266 | 0.0 | 0.0 | 0.00 | 0.00 | 0.00 | 99 | 1007.9 |
| 20260503193315 | 25 | 266 | 0.0 | 0.0 | 0.00 | 0.00 | 0.00 | 99 | 1007.9 |
| 20260503193215 | 25 | 266 | 0.0 | 0.0 | 0.00 | 0.00 | 0.00 | 99 | 1007.9 |
| 20260503193115 | 25 | 266 | 0.0 | 0.0 | 0.00 | 0.00 | 0.00 | 99 | 1007.9 |
| 20260503193017 | 25 | 266 | 0.0 | 0.0 | 0.00 | 0.00 | 0.00 | 99 | 1007.9 |
| 20260503192915 | 25 | 266 | 0.0 | 0.0 | 0.00 | 0.00 | 0.00 | 99 | 1007.9 |
| 20260503192815 | 25 | 266 | 0.0 | 0.0 | 0.00 | 0.00 | 0.00 | 99 | 1007.9 |
| 20260503192715 | 25 | 266 | 0.0 | 0.0 | 0.00 | 0.00 | 0.00 | 99 | 1007.9 |
| 20260503192615 | 25 | 266 | 0.0 | 0.0 | 0.00 | 0.00 | 0.00 | 99 | 1007.9 |
| 20260503192515 | 25 | 266 | 0.0 | 0.0 | 0.00 | 0.00 | 0.00 | 99 | 1007.9 |
| 20260503192415 | 25 | 266 | 0.0 | 0.0 | 0.00 | 0.00 | 0.00 | 99 | 1007.9 |
| 20260503192315 | 25 | 266 | 0.0 | 0.0 | 0.00 | 0.00 | 0.00 | 99 | 1008.0 |
| 20260503192215 | 25 | 266 | 0.0 | 0.0 | 0.00 | 0.00 | 0.00 | 99 | 1008.0 |
| 20260503192115 | 25 | 266 | 0.0 | 0.0 | 0.00 | 0.00 | 0.00 | 99 | 1008.0 |
| 20260503192015 | 25 | 266 | 0.0 | 0.0 | 0.00 | 0.00 | 0.00 | 99 | 1008.0 |
| 20260503191915 | 25 | 266 | 0.0 | 0.0 | 0.00 | 0.00 | 0.00 | 99 | 1008.0 |
| 20260503191815 | 25 | 266 | 0.0 | 0.0 | 0.00 | 0.00 | 0.00 | 99 | 1008.0 |
| 20260503191714 | 25 | 266 | 0.0 | 0.0 | 0.00 | 0.00 | 0.00 | 99 | 1008.0 |
| 20260503191615 | 25 | 266 | 0.0 | 0.0 | 0.00 | 0.00 | 0.00 | 99 | 1008.0 |
| 20260503191546 | 25 | 266 | 0.0 | 0.0 | 0.00 | 0.00 | 0.00 | 99 | 1008.0 |
| 20260503191415 | 25 | 266 | 0.0 | 0.0 | 0.00 | 0.00 | 0.00 | 99 | 1008.0 |
| 20260503191314 | 25 | 266 | 0.0 | 0.0 | 0.00 | 0.00 | 0.00 | 99 | 1008.0 |
| 20260503191216 | 25 | 266 | 0.0 | 0.0 | 0.00 | 0.00 | 0.00 | 99 | 1008.0 |
| 20260503191115 | 25 | 266 | 0.0 | 3.2 | 0.00 | 0.00 | 0.00 | 99 | 1008.0 |
| 20260503191014 | 25 | 266 | 0.0 | 0.0 | 0.00 | 0.00 | 0.00 | 99 | 1008.1 |
| 20260503190915 | 25 | 266 | 0.0 | 0.0 | 0.00 | 0.00 | 0.00 | 99 | 1008.1 |
| 20260503190814 | 25 | 266 | 0.0 | 0.0 | 0.00 | 0.00 | 0.00 | 99 | 1008.1 |
| 20260503190714 | 26 | 266 | 0.0 | 0.0 | 0.00 | 0.00 | 0.00 | 99 | 1008.1 |
| 20260503190614 | 26 | 266 | 0.0 | 0.0 | 0.00 | 0.00 | 0.00 | 99 | 1008.1 |
| 20260503190514 | 25 | 266 | 0.0 | 1.6 | 0.00 | 0.00 | 0.00 | 99 | 1008.1 |
| 20260503190414 | 25 | 266 | 1.6 | 1.6 | 0.00 | 0.00 | 0.00 | 99 | 1008.1 |
| 20260503190314 | 25 | 266 | 1.6 | 1.6 | 0.00 | 0.00 | 0.00 | 99 | 1008.1 |
| 20260503190215 | 26 | 266 | 1.6 | 1.6 | 0.00 | 0.00 | 0.00 | 99 | 1008.1 |
| 20260503190115 | 26 | 266 | 1.6 | 3.2 | 0.00 | 0.00 | 0.00 | 99 | 1008.1 |
| 20260503190015 | 26 | 266 | 3.2 | 3.2 | 0.00 | 0.00 | 0.00 | 99 | 1008.1 |
| 20260503185920 | 26 | 266 | 3.2 | 1.6 | 0.00 | 0.00 | 0.00 | 99 | 1008.1 |
| 20260503185814 | 26 | 266 | 1.6 | 3.2 | 0.00 | 0.00 | 0.00 | 99 | 1008.1 |
| 20260503185714 | 26 | 266 | 3.2 | 3.2 | 0.00 | 0.00 | 0.00 | 99 | 1008.1 |
| 20260503185614 | 26 | 266 | 3.2 | 1.6 | 0.00 | 0.00 | 0.00 | 99 | 1008.1 |
| 20260503185514 | 26 | 266 | 1.6 | 3.2 | 0.00 | 0.00 | 0.00 | 99 | 1008.1 |
| 20260503185414 | 26 | 266 | 3.2 | 1.6 | 0.00 | 0.00 | 0.00 | 99 | 1008.1 |
| 20260503185314 | 26 | 266 | 1.6 | 1.6 | 0.00 | 0.00 | 0.00 | 99 | 1008.2 |
| 20260503185214 | 26 | 266 | 1.6 | 3.2 | 0.00 | 0.00 | 0.00 | 99 | 1008.2 |
| 20260503185115 | 26 | 266 | 3.2 | 3.2 | 0.00 | 0.00 | 0.00 | 99 | 1008.2 |
| 20260503185014 | 26 | 266 | 3.2 | 3.2 | 0.00 | 0.00 | 0.00 | 99 | 1008.2 |
| 20260503184916 | 26 | 266 | 3.2 | 3.2 | 0.00 | 0.00 | 0.00 | 99 | 1008.2 |
| 20260503184814 | 26 | 266 | 3.2 | 3.2 | 0.00 | 0.00 | 0.00 | 99 | 1008.2 |
| 20260503184714 | 26 | 266 | 3.2 | 3.2 | 0.00 | 0.00 | 0.00 | 99 | 1008.2 |
| 20260503184614 | 26 | 266 | 3.2 | 3.2 | 0.00 | 0.00 | 0.00 | 99 | 1008.2 |
| 20260503184516 | 26 | 266 | 3.2 | 3.2 | 0.00 | 0.00 | 0.00 | 99 | 1008.2 |
| 20260503184414 | 26 | 266 | 3.2 | 3.2 | 0.00 | 0.00 | 0.00 | 99 | 1008.3 |
| 20260503184314 | 26 | 263 | 3.2 | 3.2 | 0.00 | 0.00 | 0.00 | 99 | 1008.3 |
| 20260503184214 | 26 | 263 | 3.2 | 3.2 | 0.00 | 0.00 | 0.00 | 99 | 1008.3 |
| 20260503184114 | 26 | 263 | 3.2 | 0.0 | 0.00 | 0.00 | 0.00 | 99 | 1008.3 |
| 20260503184014 | 26 | 263 | 3.2 | 3.2 | 0.00 | 0.00 | 0.00 | 99 | 1008.3 |
| 20260503183916 | 26 | 263 | 3.2 | 3.2 | 0.00 | 0.00 | 0.00 | 99 | 1008.3 |
| 20260503183814 | 26 | 263 | 3.2 | 3.2 | 0.00 | 0.00 | 0.00 | 99 | 1008.3 |
| 20260503183714 | 26 | 263 | 3.2 | 3.2 | 0.00 | 0.00 | 0.00 | 99 | 1008.3 |
| 20260503183614 | 26 | 263 | 3.2 | 3.2 | 0.00 | 0.00 | 0.00 | 99 | 1008.3 |
| 20260503183514 | 26 | 263 | 3.2 | 1.6 | 0.00 | 0.00 | 0.00 | 99 | 1008.3 |
| 20260503183414 | 26 | 263 | 1.6 | 1.6 | 0.00 | 0.00 | 0.00 | 99 | 1008.4 |
| 20260503183314 | 26 | 263 | 1.6 | 1.6 | 0.00 | 0.00 | 0.00 | 99 | 1008.4 |
| 20260503183214 | 26 | 263 | 1.6 | 1.6 | 0.00 | 0.00 | 0.00 | 99 | 1008.4 |
| 20260503183114 | 26 | 263 | 1.6 | 1.6 | 0.00 | 0.00 | 0.00 | 99 | 1008.4 |
| 20260503183028 | 26 | 263 | 0.0 | 0.0 | 0.00 | 0.00 | 0.00 | 99 | 1008.4 |
| 20260503182914 | 26 | 263 | 0.0 | 0.0 | 0.00 | 0.00 | 0.00 | 99 | 1008.4 |
| 20260503182814 | 26 | 263 | 0.0 | 0.0 | 0.00 | 0.00 | 0.00 | 99 | 1008.4 |
| 20260503182714 | 26 | 263 | 0.0 | 0.0 | 0.00 | 0.00 | 0.00 | 99 | 1008.5 |
| 20260503182614 | 26 | 263 | 0.0 | 1.6 | 0.00 | 0.00 | 0.00 | 99 | 1008.5 |
| 20260503182514 | 26 | 263 | 1.6 | 1.6 | 0.00 | 0.00 | 0.00 | 99 | 1008.5 |
| 20260503182414 | 26 | 263 | 1.6 | 0.0 | 0.00 | 0.00 | 0.00 | 99 | 1008.5 |
| 20260503182315 | 26 | 263 | 3.2 | 0.0 | 0.00 | 0.00 | 0.00 | 99 | 1008.5 |
| 20260503182214 | 26 | 263 | 0.0 | 0.0 | 0.00 | 0.00 | 0.00 | 99 | 1008.5 |
| 20260503181417 | 26 | 261 | 1.6 | 3.2 | 0.00 | 0.00 | 0.00 | 99 | 1008.5 |
| 20260503181317 | 26 | 259 | 3.2 | 3.2 | 0.00 | 0.00 | 0.00 | 99 | 1008.5 |
| 20260503181217 | 26 | 259 | 3.2 | 3.2 | 0.00 | 0.00 | 0.00 | 99 | 1008.5 |
| 20260503181117 | 26 | 259 | 3.2 | 4.8 | 0.00 | 0.00 | 0.00 | 99 | 1008.5 |
| 20260503181017 | 26 | 259 | 4.8 | 4.8 | 0.00 | 0.00 | 0.00 | 99 | 1008.5 |
| 20260503180917 | 26 | 254 | 4.8 | 4.8 | 0.00 | 0.00 | 0.00 | 99 | 1008.5 |
| 20260503180817 | 26 | 254 | 3.2 | 3.2 | 0.00 | 0.00 | 0.00 | 99 | 1008.6 |
| 20260503180717 | 26 | 254 | 3.2 | 4.8 | 0.00 | 0.00 | 0.00 | 99 | 1008.6 |
| 20260503180624 | 26 | 252 | 4.8 | 3.2 | 0.00 | 0.00 | 0.00 | 99 | 1008.6 |
| 20260503180530 | 26 | 252 | 3.2 | 4.8 | 0.00 | 0.00 | 0.00 | 99 | 1008.6 |
| 20260503180417 | 26 | 257 | 4.8 | 4.8 | 0.00 | 0.00 | 0.00 | 99 | 1008.6 |
| 20260503180317 | 26 | 258 | 4.8 | 4.8 | 0.00 | 0.00 | 0.00 | 99 | 1008.6 |
| 20260503180217 | 26 | 247 | 4.8 | 4.8 | 0.00 | 0.00 | 0.00 | 99 | 1008.6 |
| 20260503180125 | 26 | 259 | 6.4 | 4.8 | 0.00 | 0.00 | 0.00 | 99 | 1008.6 |
| 20260503175917 | 26 | 263 | 4.8 | 3.2 | 0.00 | 0.00 | 0.00 | 99 | 1008.7 |
| 20260503175817 | 26 | 263 | 6.4 | 6.4 | 0.00 | 0.00 | 0.00 | 99 | 1008.7 |
| 20260503175717 | 26 | 263 | 6.4 | 4.8 | 0.00 | 0.00 | 0.00 | 99 | 1008.7 |
| 20260503175617 | 26 | 266 | 4.8 | 4.8 | 0.00 | 0.00 | 0.00 | 99 | 1008.7 |
| 20260503175517 | 26 | 267 | 4.8 | 4.8 | 0.00 | 0.00 | 0.00 | 99 | 1008.7 |
| 20260503175417 | 26 | 269 | 4.8 | 3.2 | 0.00 | 0.00 | 0.00 | 99 | 1008.7 |
| 20260503175317 | 26 | 285 | 3.2 | 3.2 | 0.00 | 0.00 | 0.00 | 99 | 1008.7 |
| 20260503175223 | 26 | 285 | 3.2 | 3.2 | 0.00 | 0.00 | 0.00 | 99 | 1008.7 |
| 20260503175117 | 26 | 285 | 3.2 | 3.2 | 0.00 | 0.00 | 0.00 | 99 | 1008.6 |
| 20260503175017 | 26 | 282 | 3.2 | 4.8 | 0.00 | 0.00 | 0.00 | 99 | 1008.6 |
| 20260503174919 | 26 | 282 | 4.8 | 4.8 | 0.00 | 0.00 | 0.00 | 99 | 1008.6 |
| 20260503174817 | 26 | 270 | 4.8 | 4.8 | 0.00 | 0.00 | 0.00 | 99 | 1008.6 |
| 20260503174717 | 26 | 267 | 4.8 | 4.8 | 0.00 | 0.00 | 0.00 | 99 | 1008.6 |
| 20260503174617 | 26 | 265 | 4.8 | 3.2 | 0.00 | 0.00 | 0.00 | 99 | 1008.7 |
| 20260503174521 | 26 | 265 | 3.2 | 3.2 | 0.00 | 0.00 | 0.00 | 99 | 1008.7 |
| 20260503174417 | 26 | 265 | 3.2 | 4.8 | 0.00 | 0.00 | 0.00 | 99 | 1008.7 |
| 20260503174317 | 26 | 265 | 4.8 | 3.2 | 0.00 | 0.00 | 0.00 | 99 | 1008.7 |
| 20260503174217 | 26 | 265 | 3.2 | 3.2 | 0.00 | 0.00 | 0.00 | 99 | 1008.7 |
| 20260503174117 | 26 | 265 | 3.2 | 3.2 | 0.00 | 0.00 | 0.00 | 99 | 1008.7 |
| 20260503174017 | 26 | 265 | 3.2 | 4.8 | 0.00 | 0.00 | 0.00 | 99 | 1008.7 |
| 20260503173917 | 26 | 265 | 4.8 | 4.8 | 0.00 | 0.00 | 0.00 | 99 | 1008.7 |
| 20260503173817 | 26 | 265 | 4.8 | 3.2 | 0.00 | 0.00 | 0.00 | 99 | 1008.7 |
| 20260503173717 | 26 | 269 | 3.2 | 4.8 | 0.00 | 0.00 | 0.00 | 99 | 1008.7 |